FW4770 Weather Reports


Display with metric or nautical units.
time (UTC)temp
F
wind
direction
speed
MPH
gust
MPH
rain 1hr
in
rain 24hr
in
rain mn
in
humidity
%
barometer
mb
20260509233222 57 325 14.0 20.0 0.00 0.03 0.03 36 1011.7
20260509233125 57 360 15.0 20.0 0.00 0.03 0.03 36 1011.7
20260509233029 57 355 14.0 19.0 0.00 0.03 0.03 37 1011.7
20260509232952 57 360 11.0 19.0 0.00 0.03 0.03 38 1011.7
20260509232808 57 331 7.0 15.0 0.00 0.03 0.03 39 1011.5
20260509232712 57 338 8.0 15.0 0.00 0.03 0.03 39 1011.5
20260509232615 57 318 8.0 15.0 0.00 0.03 0.03 38 1011.6
20260509232524 57 355 8.0 15.0 0.00 0.03 0.03 38 1011.5
20260509232448 57 360 7.0 15.0 0.00 0.03 0.03 38 1011.5
20260509232330 57 22 8.0 15.0 0.00 0.03 0.03 38 1011.5
20260509232207 57 50 9.0 15.0 0.00 0.03 0.03 37 1011.6
20260509232110 57 10 7.0 15.0 0.00 0.03 0.03 37 1011.6
20260509232013 57 45 7.0 15.0 0.00 0.03 0.03 37 1011.4
20260509231920 57 30 8.0 15.0 0.00 0.03 0.03 37 1011.6
20260509231824 57 5 9.0 19.0 0.00 0.03 0.03 36 1011.3
20260509231729 57 9 7.0 19.0 0.00 0.03 0.03 37 1011.4
20260509231632 58 19 7.0 19.0 0.00 0.03 0.03 37 1011.6
20260509231514 58 34 6.0 19.0 0.00 0.03 0.03 37 1011.5
20260509231418 58 32 8.0 19.0 0.00 0.03 0.03 37 1011.5
20260509231321 58 17 9.0 19.0 0.00 0.03 0.03 37 1011.6
20260509231210 58 355 10.0 19.0 0.00 0.03 0.03 36 1011.5
20260509231113 58 360 11.0 19.0 0.00 0.03 0.03 37 1011.5
20260509231019 58 13 12.0 19.0 0.00 0.03 0.03 38 1011.6
20260509230924 58 344 11.0 19.0 0.00 0.03 0.03 37 1011.4
20260509230809 57 355 8.0 18.0 0.00 0.03 0.03 37 1011.4
20260509230713 57 19 8.0 18.0 0.00 0.03 0.03 37 1011.4
20260509230620 57 49 10.0 18.0 0.00 0.03 0.03 37 1011.4
20260509230408 57 5 10.0 20.0 0.00 0.03 0.03 37 1011.4
20260509230333 57 24 8.0 20.0 0.00 0.03 0.03 37 1011.4
20260509230235 58 19 8.0 20.0 0.00 0.03 0.03 37 1011.5
20260509230117 58 318 8.0 20.0 0.00 0.03 0.03 37 1011.3
20260509230042 58 317 9.0 20.0 0.00 0.03 0.03 37 1011.5
20260509225910 58 355 12.0 20.0 0.00 0.03 0.03 36 1011.4
20260509225813 58 360 12.0 20.0 0.00 0.03 0.03 36 1011.4
20260509225717 58 19 11.0 20.0 0.00 0.03 0.03 36 1011.4
20260509225642 58 360 10.0 21.0 0.00 0.03 0.03 36 1011.4
20260509225524 58 345 11.0 21.0 0.00 0.03 0.03 36 1011.3
20260509225409 59 49 12.0 21.0 0.00 0.03 0.03 36 1011.7
20260509225318 59 21 11.0 21.0 0.00 0.03 0.03 36 1011.6
20260509225223 59 355 10.0 21.0 0.00 0.03 0.03 35 1011.3
20260509225127 59 360 10.0 21.0 0.00 0.03 0.03 36 1011.4
20260509225030 59 5 11.0 25.0 0.00 0.03 0.03 36 1011.4
20260509224908 59 35 13.0 25.0 0.00 0.03 0.03 36 1011.3
20260509224810 59 16 15.0 25.0 0.00 0.03 0.03 35 1011.3
20260509224715 59 360 12.0 25.0 0.00 0.03 0.03 35 1011.4
20260509224622 60 43 10.0 25.0 0.00 0.03 0.03 35 1011.3
20260509224526 60 26 12.0 25.0 0.00 0.03 0.03 37 1011.3
20260509224431 60 34 14.0 25.0 0.00 0.03 0.03 36 1011.4
20260509224308 60 32 14.0 25.0 0.00 0.03 0.03 36 1011.3
20260509224213 60 14 14.0 19.0 0.00 0.03 0.03 36 1011.2
20260509224138 60 360 12.0 19.0 0.00 0.03 0.03 36 1011.0
20260509224041 60 355 9.0 19.0 0.00 0.03 0.03 37 1011.0
20260509223909 59 346 7.0 18.0 0.00 0.03 0.03 38 1011.0
20260509223814 59 9 8.0 18.0 0.00 0.03 0.03 38 1011.1
20260509223719 59 10 11.0 18.0 0.00 0.03 0.03 37 1011.0
20260509223622 59 14 12.0 18.0 0.00 0.03 0.03 37 1011.1
20260509223527 59 38 11.0 18.0 0.00 0.03 0.03 37 1011.1
20260509223413 59 59 10.0 18.0 0.00 0.03 0.03 37 1011.0
20260509223337 59 48 10.0 19.0 0.00 0.03 0.03 37 1011.0
20260509223220 59 55 11.0 19.0 0.00 0.03 0.03 37 1011.1
20260509223125 59 48 10.0 19.0 0.00 0.03 0.03 38 1011.1
20260509223009 59 29 10.0 19.0 0.00 0.03 0.03 38 1011.2
20260509222933 59 14 11.0 19.0 0.00 0.03 0.03 37 1011.2
20260509222810 59 350 11.0 20.0 0.00 0.03 0.03 39 1011.1
20260509222717 59 355 11.0 21.0 0.00 0.03 0.03 38 1011.2
20260509222621 59 346 13.0 21.0 0.00 0.03 0.03 37 1011.0
20260509222526 59 17 12.0 21.0 0.00 0.03 0.03 39 1011.0
20260509222430 59 5 11.0 21.0 0.00 0.03 0.03 38 1011.3
20260509222313 59 340 9.0 21.0 0.00 0.03 0.03 38 1011.0
20260509222216 58 360 9.0 21.0 0.00 0.03 0.03 39 1011.2
20260509222126 58 11 10.0 21.0 0.00 0.03 0.03 37 1011.0
20260509222035 58 360 11.0 21.0 0.00 0.03 0.03 38 1011.0
20260509221914 58 13 12.0 21.0 0.00 0.03 0.03 37 1011.1
20260509221819 58 34 13.0 21.0 0.00 0.03 0.03 37 1011.0
20260509221743 58 9 13.0 20.0 0.00 0.03 0.03 36 1011.1
20260509221625 58 11 12.0 20.0 0.00 0.03 0.03 36 1011.2
20260509221530 58 342 8.0 19.0 0.00 0.03 0.03 37 1011.0
20260509221416 58 5 8.0 19.0 0.00 0.03 0.03 37 1011.0
20260509221320 59 17 10.0 19.0 0.00 0.03 0.03 36 1011.0
20260509221223 59 44 11.0 19.0 0.00 0.03 0.03 36 1011.0
20260509221107 59 29 14.0 19.0 0.00 0.03 0.03 35 1011.1
20260509221031 59 63 14.0 19.0 0.00 0.03 0.03 35 1011.1
20260509220915 60 63 12.0 19.0 0.00 0.03 0.03 36 1011.1
20260509220820 60 35 9.0 20.0 0.00 0.03 0.03 35 1011.0
20260509220727 60 26 8.0 20.0 0.00 0.03 0.03 36 1011.0
20260509220652 60 351 10.0 20.0 0.00 0.03 0.03 36 1011.1
20260509220508 60 342 14.0 21.0 0.00 0.03 0.03 34 1011.0
20260509220412 60 347 14.0 21.0 0.00 0.03 0.03 36 1011.0
20260509220317 60 324 12.0 21.0 0.00 0.03 0.03 34 1011.1
20260509220221 60 338 12.0 21.0 0.00 0.03 0.03 38 1011.0
20260509220109 59 360 14.0 21.0 0.00 0.03 0.03 34 1011.1
20260509220013 59 20 14.0 21.0 0.00 0.03 0.03 35 1011.0
20260509215917 59 337 13.0 21.0 0.00 0.03 0.03 35 1011.1
20260509215822 59 14 14.0 21.0 0.00 0.03 0.03 37 1011.0
20260509215726 59 336 13.0 21.0 0.00 0.03 0.03 35 1010.9
20260509215620 59 355 11.0 26.0 0.00 0.03 0.03 35 1010.9
20260509215508 59 42 12.0 26.0 0.00 0.03 0.03 35 1011.0
20260509215433 59 26 13.0 26.0 0.00 0.03 0.03 36 1011.0
20260509215310 59 26 9.0 26.0 0.00 0.03 0.03 35 1011.0
20260509215212 59 44 9.0 26.0 0.00 0.03 0.03 35 1011.0
20260509215136 59 13 10.0 26.0 0.00 0.03 0.03 34 1011.1
20260509215020 60 5 11.0 26.0 0.00 0.03 0.03 36 1011.0
20260509214945 60 55 13.0 26.0 0.00 0.03 0.03 35 1011.0
20260509214831 60 336 16.0 26.0 0.00 0.03 0.03 34 1011.1
20260509214735 60 344 15.0 21.0 0.00 0.03 0.03 35 1010.9
20260509214636 60 336 13.0 20.0 0.00 0.03 0.03 36 1010.9
20260509214519 60 321 10.0 20.0 0.00 0.03 0.03 38 1011.1
20260509214423 60 355 8.0 20.0 0.00 0.03 0.03 38 1010.8
20260509214306 60 5 11.0 20.0 0.00 0.03 0.03 37 1010.9
20260509214210 60 30 12.0 20.0 0.00 0.03 0.03 36 1011.0
20260509214133 60 17 9.0 20.0 0.00 0.03 0.03 38 1010.9
20260509214021 60 5 9.0 20.0 0.00 0.03 0.03 38 1010.9
20260509213943 60 38 11.0 20.0 0.00 0.03 0.03 37 1010.9
20260509213807 60 5 12.0 20.0 0.00 0.03 0.03 37 1011.2
20260509213731 60 30 13.0 20.0 0.00 0.03 0.03 37 1010.9
20260509213608 60 355 12.0 20.0 0.00 0.03 0.03 36 1010.8
20260509213510 60 349 11.0 20.0 0.00 0.03 0.03 38 1010.6
20260509213419 60 333 11.0 18.0 0.00 0.03 0.03 37 1010.8
20260509213343 60 37 12.0 19.0 0.00 0.03 0.03 38 1010.7
20260509213206 60 346 10.0 19.0 0.00 0.03 0.03 38 1010.8
20260509213111 60 360 10.0 19.0 0.00 0.03 0.03 37 1010.7
20260509213013 60 15 12.0 19.0 0.00 0.03 0.03 37 1010.8
20260509212916 60 39 10.0 19.0 0.00 0.03 0.03 39 1010.9
20260509212820 60 338 9.0 19.0 0.00 0.03 0.03 40 1010.8
20260509212706 60 350 8.0 19.0 0.00 0.03 0.03 39 1010.8
20260509212611 60 9 9.0 19.0 0.00 0.03 0.03 38 1010.8
20260509212515 60 38 9.0 19.0 0.00 0.03 0.03 38 1010.8
20260509212417 60 342 7.0 15.0 0.00 0.03 0.03 40 1010.7
20260509212320 60 33 10.0 15.0 0.00 0.03 0.03 37 1010.7
20260509212224 60 355 9.0 15.0 0.00 0.03 0.03 38 1010.6
20260509212131 60 327 5.0 15.0 0.00 0.03 0.03 40 1010.7
20260509212007 60 42 5.0 15.0 0.00 0.03 0.03 41 1010.7
20260509211910 60 342 9.0 15.0 0.00 0.03 0.03 39 1010.7
20260509211812 60 351 10.0 15.0 0.00 0.03 0.03 38 1010.7
20260509211716 60 55 10.0 15.0 0.00 0.03 0.03 38 1010.7
20260509211640 60 341 10.0 17.0 0.00 0.03 0.03 39 1010.6
20260509211542 60 15 7.0 18.0 0.00 0.03 0.03 40 1010.8
20260509211407 60 28 8.0 18.0 0.00 0.03 0.03 40 1010.7
20260509211311 60 39 9.0 18.0 0.00 0.03 0.03 40 1010.6
20260509211214 60 42 10.0 18.0 0.00 0.03 0.03 38 1010.7
20260509211117 60 42 11.0 18.0 0.00 0.03 0.03 38 1010.6
20260509211021 60 36 9.0 18.0 0.00 0.03 0.03 40 1010.6
20260509210924 60 355 8.0 18.0 0.00 0.03 0.03 39 1010.6
20260509210831 59 30 10.0 18.0 0.00 0.03 0.03 37 1010.6
20260509210754 60 17 12.0 18.0 0.00 0.03 0.03 37 1010.7
20260509210608 60 49 12.0 18.0 0.00 0.03 0.03 37 1010.6
20260509210511 60 20 12.0 18.0 0.00 0.03 0.03 38 1010.6
20260509210435 60 14 13.0 18.0 0.00 0.03 0.03 38 1010.6
20260509210317 60 16 11.0 18.0 0.00 0.03 0.03 37 1010.5
20260509210220 60 336 10.0 18.0 0.00 0.03 0.03 38 1010.6
20260509210128 60 41 9.0 19.0 0.00 0.03 0.03 37 1010.8
20260509210030 60 5 9.0 20.0 0.00 0.03 0.03 37 1010.5
20260509205907 60 12 12.0 20.0 0.00 0.03 0.03 36 1010.5
20260509205811 60 338 13.0 20.0 0.00 0.03 0.03 36 1010.5
20260509205714 60 323 11.0 20.0 0.00 0.03 0.03 37 1010.5
20260509205637 60 342 11.0 20.0 0.00 0.03 0.03 40 1010.5
20260509205520 60 5 12.0 20.0 0.00 0.03 0.03 37 1010.6
20260509205443 60 360 12.0 20.0 0.00 0.03 0.03 39 1010.7
20260509205310 60 355 12.0 20.0 0.00 0.03 0.03 39 1010.8
20260509205212 60 324 8.0 20.0 0.00 0.03 0.03 39 1010.4
20260509205114 60 355 8.0 20.0 0.00 0.03 0.03 39 1010.5
20260509205015 60 360 11.0 20.0 0.00 0.03 0.03 37 1010.4
20260509204919 60 340 13.0 20.0 0.00 0.03 0.03 39 1010.4
20260509204822 60 351 11.0 20.0 0.00 0.03 0.03 41 1010.5
20260509204709 60 327 6.0 18.0 0.00 0.03 0.03 40 1010.3
20260509204612 60 9 6.0 18.0 0.00 0.03 0.03 39 1010.4
20260509204516 60 46 7.0 18.0 0.00 0.03 0.03 39 1010.4
20260509204438 60 111 8.0 18.0 0.00 0.03 0.03 36 1010.3
20260509204320 60 21 11.0 18.0 0.00 0.03 0.03 39 1010.6
20260509204244 60 339 12.0 18.0 0.00 0.03 0.03 37 1010.6
20260509204126 60 39 12.0 19.0 0.00 0.03 0.03 37 1010.5
20260509204033 60 37 10.0 20.0 0.00 0.03 0.03 39 1010.5
20260509203908 60 30 9.0 20.0 0.00 0.03 0.03 39 1010.5
20260509203811 59 78 8.0 20.0 0.00 0.03 0.03 38 1010.5
20260509203714 59 54 9.0 20.0 0.00 0.03 0.03 37 1010.4
20260509203618 59 36 12.0 20.0 0.00 0.03 0.03 36 1010.5
20260509203520 59 59 14.0 21.0 0.00 0.03 0.03 35 1010.5
20260509203408 60 26 13.0 21.0 0.00 0.03 0.03 34 1010.7
20260509203330 60 37 12.0 21.0 0.00 0.03 0.03 38 1010.4
20260509203207 60 331 9.0 21.0 0.00 0.03 0.03 42 1010.5
20260509203111 60 348 8.0 21.0 0.00 0.03 0.03 40 1010.2
20260509203014 59 342 9.0 24.0 0.00 0.03 0.03 40 1010.4
20260509202937 59 355 11.0 24.0 0.00 0.03 0.03 38 1010.4
20260509202820 59 40 11.0 24.0 0.00 0.03 0.03 38 1010.4
20260509202707 59 14 10.0 24.0 0.00 0.03 0.03 40 1010.4
20260509202630 60 355 11.0 24.0 0.00 0.03 0.03 40 1010.4
20260509202532 60 344 9.0 24.0 0.00 0.03 0.03 39 1010.3
20260509202414 60 26 10.0 24.0 0.00 0.03 0.03 41 1010.2
20260509202337 60 360 12.0 24.0 0.00 0.03 0.03 38 1010.4
20260509202241 60 59 14.0 24.0 0.00 0.03 0.03 38 1010.3
20260509202143 60 26 15.0 21.0 0.00 0.03 0.03 36 1010.3
20260509202025 60 350 14.0 21.0 0.00 0.03 0.03 37 1010.3
20260509201933 60 325 11.0 19.0 0.00 0.03 0.03 39 1010.4
20260509201807 60 317 12.0 20.0 0.00 0.03 0.03 38 1010.5
20260509201711 60 360 12.0 20.0 0.00 0.03 0.03 38 1010.3
20260509201614 60 360 11.0 20.0 0.00 0.03 0.03 39 1010.5
20260509201516 59 345 12.0 20.0 0.00 0.03 0.03 39 1010.3
20260509201419 59 5 10.0 20.0 0.00 0.03 0.03 39 1010.4
20260509201308 59 49 10.0 20.0 0.00 0.03 0.03 41 1010.4
20260509201231 59 292 13.0 23.0 0.00 0.03 0.03 38 1010.2
20260509201112 59 18 13.0 23.0 0.00 0.03 0.03 39 1010.2
20260509201016 59 5 9.0 23.0 0.00 0.03 0.03 40 1010.5
20260509200920 59 5 9.0 23.0 0.00 0.03 0.03 40 1010.2
20260509200845 59 10 11.0 23.0 0.00 0.03 0.03 40 1010.2
20260509200728 59 346 13.0 23.0 0.00 0.03 0.03 37 1010.3
20260509200616 59 339 13.0 23.0 0.00 0.03 0.03 37 1010.3
20260509200520 59 355 15.0 23.0 0.00 0.03 0.03 38 1010.2
20260509200425 59 360 17.0 23.0 0.00 0.03 0.03 37 1010.2
20260509200329 59 360 15.0 23.0 0.00 0.03 0.03 38 1010.1
20260509200212 59 350 14.0 23.0 0.00 0.03 0.03 38 1010.1
20260509200136 59 333 15.0 23.0 0.00 0.03 0.03 39 1010.1
20260509200019 59 350 14.0 21.0 0.00 0.03 0.03 39 1010.2
20260509195908 59 28 12.0 21.0 0.00 0.03 0.03 40 1010.2
20260509195811 59 338 12.0 21.0 0.00 0.03 0.03 40 1010.2
20260509195716 59 350 11.0 21.0 0.00 0.03 0.03 40 1010.2
20260509195621 59 10 12.0 21.0 0.00 0.03 0.03 40 1010.3
20260509195524 59 5 13.0 21.0 0.00 0.03 0.03 38 1010.1
20260509195430 59 351 15.0 21.0 0.00 0.03 0.03 39 1010.1
20260509195354 59 336 15.0 24.0 0.00 0.03 0.03 39 1010.0
20260509195220 59 360 13.0 24.0 0.00 0.03 0.03 38 1010.0
20260509195123 58 335 13.0 24.0 0.00 0.03 0.03 39 1010.2
20260509195006 58 26 11.0 24.0 0.00 0.03 0.03 38 1010.2
20260509194910 59 51 9.0 24.0 0.00 0.03 0.03 41 1010.1
20260509194815 58 64 9.0 24.0 0.00 0.03 0.03 41 1010.1
20260509194720 58 5 11.0 24.0 0.00 0.03 0.03 42 1010.1
20260509194608 58 26 15.0 24.0 0.00 0.03 0.03 40 1010.3
20260509194532 58 13 16.0 24.0 0.00 0.03 0.03 40 1010.4
20260509194409 58 59 12.0 21.0 0.00 0.03 0.03 40 1010.3
20260509194314 58 49 10.0 21.0 0.00 0.03 0.03 41 1010.0
20260509194237 58 42 11.0 24.0 0.00 0.03 0.03 39 1010.0
20260509194119 58 35 13.0 24.0 0.00 0.03 0.03 40 1010.0
20260509194026 58 45 13.0 24.0 0.00 0.03 0.03 39 1010.1
20260509193929 58 24 13.0 24.0 0.00 0.03 0.03 39 1009.9
20260509193814 59 34 13.0 24.0 0.00 0.03 0.03 38 1010.1
20260509193716 59 30 13.0 24.0 0.00 0.03 0.03 38 1010.2
20260509193621 59 12 13.0 24.0 0.00 0.03 0.03 40 1010.3
20260509193525 59 19 14.0 24.0 0.00 0.03 0.03 40 1010.3
20260509193414 59 355 14.0 24.0 0.00 0.03 0.03 37 1010.1
20260509193319 59 355 14.0 23.0 0.00 0.03 0.03 38 1010.0
20260509193244 59 355 14.0 23.0 0.00 0.03 0.03 37 1010.1
20260509193144 59 27 13.0 23.0 0.00 0.03 0.03 39 1010.0
20260509193028 59 36 12.0 23.0 0.00 0.03 0.03 39 1010.0
20260509192911 59 355 13.0 23.0 0.00 0.03 0.03 40 1010.0
20260509192816 59 340 13.0 23.0 0.00 0.03 0.03 39 1009.9
20260509192720 59 348 12.0 23.0 0.00 0.03 0.03 41 1010.0
20260509192608 59 346 14.0 23.0 0.00 0.03 0.03 41 1010.1
20260509192532 58 344 16.0 23.0 0.00 0.03 0.03 40 1009.8
20260509192408 58 350 15.0 21.0 0.00 0.03 0.03 41 1009.9
20260509192313 58 51 12.0 20.0 0.00 0.03 0.03 40 1009.8
20260509192216 58 47 11.0 20.0 0.00 0.03 0.03 39 1009.8
20260509192119 58 67 10.0 20.0 0.00 0.03 0.03 38 1009.8
20260509192007 58 55 10.0 20.0 0.00 0.03 0.03 40 1010.1
20260509191911 58 9 13.0 20.0 0.00 0.03 0.03 39 1010.1
20260509191815 59 31 15.0 20.0 0.00 0.03 0.03 37 1010.0
20260509191718 59 48 14.0 23.0 0.00 0.03 0.03 38 1010.1
20260509191642 59 11 13.0 23.0 0.00 0.03 0.03 37 1009.9
20260509191547 59 19 13.0 23.0 0.00 0.03 0.03 40 1010.1
20260509191413 59 30 12.0 24.0 0.00 0.03 0.03 40 1010.0
20260509191317 59 355 9.0 24.0 0.00 0.03 0.03 40 1009.9
20260509191220 58 355 9.0 24.0 0.00 0.03 0.03 43 1010.0
20260509191124 58 349 9.0 24.0 0.00 0.03 0.03 40 1010.0
20260509191028 58 26 12.0 24.0 0.00 0.03 0.03 41 1010.1
20260509190932 58 19 13.0 24.0 0.00 0.03 0.03 41 1009.9
20260509190808 58 14 13.0 24.0 0.00 0.03 0.03 40 1010.1
20260509190717 58 329 14.0 24.0 0.00 0.03 0.03 37 1010.1
20260509190620 58 51 14.0 24.0 0.00 0.03 0.03 37 1010.2
20260509190542 59 36 12.0 18.0 0.00 0.03 0.03 42 1010.1
20260509190407 59 22 10.0 18.0 0.00 0.03 0.03 43 1010.0
20260509190331 58 60 9.0 18.0 0.00 0.03 0.03 42 1009.9
20260509190215 58 348 9.0 18.0 0.00 0.03 0.03 41 1009.7
20260509190118 58 63 9.0 18.0 0.00 0.03 0.03 42 1009.7
20260509190046 58 37 8.0 18.0 0.00 0.03 0.03 39 1009.7
20260509185930 58 41 9.0 18.0 0.00 0.03 0.03 40 1009.9
20260509185806 58 360 11.0 18.0 0.00 0.03 0.03 39 1009.9
20260509185711 58 43 12.0 18.0 0.00 0.03 0.03 40 1010.0
20260509185614 58 42 11.0 18.0 0.00 0.03 0.03 41 1010.1
20260509185519 58 360 9.0 18.0 0.00 0.03 0.03 44 1010.0
20260509185442 58 12 7.0 17.0 0.00 0.03 0.03 42 1009.7
20260509185328 58 342 8.0 18.0 0.00 0.03 0.03 42 1009.7
20260509185212 58 304 8.0 18.0 0.00 0.03 0.03 44 1009.6
20260509185115 58 321 8.0 23.0 0.00 0.03 0.03 45 1009.6
20260509185019 58 355 6.0 24.0 0.00 0.03 0.03 43 1009.7
20260509184925 58 34 6.0 24.0 0.00 0.03 0.03 46 1009.8
20260509184826 58 336 9.0 24.0 0.00 0.03 0.03 44 1009.8
20260509184730 58 24 12.0 24.0 0.00 0.03 0.03 42 1009.8
20260509184616 58 28 12.0 24.0 0.00 0.03 0.03 41 1009.8
20260509184521 58 24 14.0 24.0 0.00 0.03 0.03 41 1010.0
20260509184424 58 22 16.0 24.0 0.00 0.03 0.03 41 1009.9
20260509184308 58 25 15.0 24.0 0.00 0.03 0.03 41 1009.9
20260509184234 58 350 14.0 24.0 0.00 0.03 0.03 43 1009.9
20260509184109 58 316 12.0 17.0 0.00 0.03 0.03 41 1009.4
20260509184017 58 334 12.0 17.0 0.00 0.03 0.03 42 1009.3
20260509183921 58 345 11.0 19.0 0.00 0.03 0.03 43 1009.4
20260509183846 58 355 11.0 19.0 0.00 0.03 0.03 42 1009.5
20260509183708 58 342 10.0 19.0 0.00 0.03 0.03 42 1009.5
20260509183612 58 315 10.0 19.0 0.00 0.03 0.03 43 1009.5
20260509183517 58 9 10.0 19.0 0.00 0.03 0.03 42 1009.5
20260509183442 58 22 10.0 19.0 0.00 0.03 0.03 43 1009.4
20260509183349 58 339 10.0 21.0 0.00 0.03 0.03 44 1009.5
20260509183252 58 38 11.0 21.0 0.00 0.03 0.03 44 1009.5
20260509183108 58 336 11.0 21.0 0.00 0.03 0.03 44 1009.5
20260509183033 57 360 12.0 21.0 0.00 0.03 0.03 45 1009.6
20260509182909 57 350 11.0 21.0 0.00 0.03 0.03 42 1009.4
20260509182833 57 41 11.0 21.0 0.00 0.03 0.03 41 1009.6
20260509182716 57 351 11.0 21.0 0.00 0.03 0.03 41 1009.4
20260509182640 58 344 11.0 21.0 0.00 0.03 0.03 41 1009.2
20260509182507 58 339 12.0 21.0 0.00 0.03 0.03 41 1009.2
20260509182411 58 360 11.0 21.0 0.00 0.03 0.03 41 1009.2
20260509182314 58 13 11.0 21.0 0.00 0.03 0.03 42 1009.3
20260509182239 58 360 13.0 21.0 0.00 0.03 0.03 43 1009.3
20260509182121 58 328 11.0 21.0 0.00 0.03 0.03 43 1009.3
20260509182026 58 317 9.0 21.0 0.00 0.03 0.03 46 1009.3
20260509181914 58 347 9.0 20.0 0.00 0.03 0.03 46 1009.4
20260509181839 58 330 9.0 20.0 0.00 0.03 0.03 46 1009.2
20260509181722 58 331 8.0 20.0 0.00 0.03 0.03 47 1009.3
20260509181626 58 345 9.0 20.0 0.00 0.03 0.03 44 1009.2
20260509181510 58 11 12.0 20.0 0.00 0.03 0.03 45 1009.4
20260509181414 58 335 13.0 20.0 0.00 0.03 0.03 43 1009.6
20260509181323 58 355 13.0 20.0 0.00 0.03 0.03 44 1009.4
20260509181208 58 330 12.0 19.0 0.00 0.03 0.03 44 1009.4
20260509181132 58 360 12.0 19.0 0.00 0.03 0.03 44 1009.4
20260509181010 58 360 13.0 19.0 0.00 0.03 0.03 43 1009.3
20260509180913 58 25 12.0 19.0 0.00 0.03 0.03 43 1009.2
20260509180818 58 5 12.0 18.0 0.00 0.03 0.03 44 1009.4
20260509180707 58 40 10.0 18.0 0.00 0.03 0.03 42 1009.3
20260509180631 58 25 9.0 18.0 0.00 0.03 0.03 43 1009.3
20260509180508 58 36 11.0 18.0 0.00 0.03 0.03 43 1009.4
20260509180432 58 20 11.0 18.0 0.00 0.03 0.03 43 1009.4
20260509180309 58 24 11.0 18.0 0.00 0.03 0.03 43 1009.4
20260509180213 58 5 13.0 18.0 0.00 0.03 0.03 43 1009.4
20260509180122 58 335 13.0 18.0 0.00 0.03 0.03 44 1009.4
20260509180006 58 5 10.0 18.0 0.00 0.03 0.03 46 1009.2
20260509175910 58 9 8.0 18.0 0.00 0.03 0.03 46 1009.2
20260509175814 58 355 8.0 19.0 0.00 0.03 0.03 46 1009.2
20260509175719 57 325 10.0 19.0 0.00 0.03 0.03 45 1009.3
20260509175622 57 11 10.0 19.0 0.00 0.03 0.03 45 1009.2
20260509175509 57 32 10.0 19.0 0.00 0.03 0.03 46 1009.1
20260509175413 57 350 11.0 19.0 0.00 0.03 0.03 46 1009.2
20260509175317 57 355 12.0 19.0 0.00 0.03 0.03 44 1009.2
20260509175221 57 325 12.0 19.0 0.00 0.03 0.03 44 1009.4
20260509175144 57 345 10.0 20.0 0.00 0.03 0.03 44 1009.2
20260509175028 57 348 10.0 20.0 0.00 0.03 0.03 45 1009.1
20260509174932 57 355 10.0 20.0 0.00 0.03 0.03 45 1009.2
20260509174820 57 20 10.0 20.0 0.00 0.03 0.03 45 1009.4
20260509174724 57 350 10.0 20.0 0.00 0.03 0.03 46 1009.2
20260509174628 56 29 9.0 20.0 0.00 0.03 0.03 47 1009.3
20260509174553 56 24 11.0 20.0 0.00 0.03 0.03 42 1009.3
20260509174409 57 31 12.0 20.0 0.00 0.03 0.03 42 1009.2
20260509174313 57 46 11.0 20.0 0.00 0.03 0.03 43 1009.4
20260509174217 57 60 11.0 20.0 0.00 0.03 0.03 45 1009.3
20260509174124 57 10 12.0 20.0 0.00 0.03 0.03 43 1009.2
20260509174009 57 61 12.0 22.0 0.00 0.03 0.03 44 1009.4
20260509173913 57 17 11.0 22.0 0.00 0.03 0.03 44 1009.3
20260509173817 57 54 11.0 22.0 0.00 0.03 0.03 45 1009.2
20260509173739 57 344 11.0 22.0 0.00 0.03 0.03 43 1009.4
20260509173621 57 44 12.0 22.0 0.00 0.03 0.03 42 1009.2
20260509173528 57 17 14.0 22.0 0.00 0.03 0.03 42 1009.2
20260509173432 57 13 14.0 22.0 0.00 0.03 0.03 45 1009.2
20260509173309 57 341 12.0 22.0 0.00 0.03 0.03 44 1009.0
20260509173213 57 355 11.0 22.0 0.00 0.03 0.03 45 1009.1
20260509173116 57 316 9.0 22.0 0.00 0.03 0.03 48 1009.0
20260509173019 57 304 9.0 19.0 0.00 0.03 0.03 50 1009.0
20260509172942 57 345 11.0 19.0 0.00 0.03 0.03 47 1009.2
20260509172808 56 15 10.0 19.0 0.00 0.03 0.03 48 1009.1
20260509172732 56 350 9.0 19.0 0.00 0.03 0.03 46 1009.0
20260509172607 56 336 11.0 19.0 0.00 0.03 0.03 48 1009.0
20260509172512 56 351 12.0 19.0 0.00 0.03 0.03 47 1009.1
20260509172434 56 341 11.0 19.0 0.00 0.03 0.03 50 1009.1
20260509172316 56 336 10.0 19.0 0.00 0.03 0.03 48 1009.0
20260509172221 56 355 12.0 19.0 0.00 0.03 0.03 49 1008.9
20260509172108 56 355 10.0 19.0 0.00 0.03 0.03 50 1009.2
20260509172010 56 5 8.0 17.0 0.00 0.03 0.03 48 1009.0
20260509171913 56 31 9.0 19.0 0.00 0.03 0.03 49 1009.1
20260509171816 56 41 11.0 19.0 0.00 0.03 0.03 49 1009.1
20260509171719 56 51 11.0 19.0 0.00 0.03 0.03 49 1009.0
20260509171623 56 24 10.0 19.0 0.00 0.03 0.03 50 1009.1
20260509171530 56 29 10.0 19.0 0.00 0.03 0.03 51 1009.1
20260509171432 56 41 10.0 19.0 0.00 0.03 0.03 48 1008.8
20260509171308 56 59 11.0 19.0 0.00 0.03 0.03 49 1009.0
20260509171211 56 355 12.0 19.0 0.00 0.03 0.03 48 1008.9
20260509171115 56 5 11.0 19.0 0.00 0.03 0.03 49 1008.9
20260509171017 56 38 11.0 21.0 0.00 0.03 0.03 47 1008.9
20260509170920 56 38 12.0 21.0 0.00 0.03 0.03 46 1009.0
20260509170807 56 46 12.0 21.0 0.00 0.03 0.03 48 1009.1
20260509170710 56 59 12.0 21.0 0.00 0.03 0.03 49 1008.8
20260509170614 56 29 12.0 21.0 0.00 0.03 0.03 50 1008.9
20260509170517 56 360 10.0 21.0 0.00 0.03 0.03 49 1008.8
20260509170442 56 360 10.0 21.0 0.00 0.03 0.03 48 1008.8
20260509170324 56 5 11.0 21.0 0.00 0.03 0.03 49 1008.9
20260509170212 56 336 11.0 21.0 0.00 0.03 0.03 50 1009.0
20260509170117 55 349 10.0 21.0 0.00 0.03 0.03 51 1009.1
20260509170020 55 20 9.0 20.0 0.00 0.03 0.03 50 1008.8
20260509165923 55 360 10.0 20.0 0.00 0.03 0.03 50 1008.8
20260509165808 55 5 12.0 20.0 0.00 0.03 0.03 48 1008.8
20260509165712 55 313 13.0 20.0 0.00 0.03 0.03 49 1008.9
20260509165620 55 346 12.0 20.0 0.00 0.03 0.03 49 1008.8
20260509165545 55 16 8.0 17.0 0.00 0.03 0.03 51 1008.8
20260509165408 55 5 6.0 17.0 0.00 0.03 0.03 50 1008.8
20260509165312 55 5 8.0 17.0 0.00 0.03 0.03 49 1008.8
20260509165236 55 26 10.0 17.0 0.00 0.03 0.03 49 1008.7
20260509165120 55 347 10.0 17.0 0.00 0.03 0.03 49 1008.8
20260509165044 55 314 11.0 17.0 0.00 0.03 0.03 50 1008.9
20260509164946 55 41 11.0 17.0 0.00 0.03 0.03 49 1008.9
20260509164851 55 5 11.0 18.0 0.00 0.03 0.03 48 1008.8
20260509164707 56 344 8.0 18.0 0.00 0.03 0.03 50 1008.8
20260509164612 56 10 8.0 18.0 0.00 0.03 0.03 50 1008.7
20260509164516 56 45 10.0 18.0 0.00 0.03 0.03 50 1008.8
20260509164419 56 55 10.0 18.0 0.00 0.03 0.03 49 1008.8
20260509164324 56 28 10.0 18.0 0.00 0.03 0.03 50 1008.8
20260509164232 56 350 12.0 18.0 0.00 0.03 0.03 51 1008.8
20260509164109 56 22 13.0 19.0 0.00 0.03 0.03 50 1008.7
20260509164013 56 77 13.0 19.0 0.00 0.03 0.03 49 1008.7
20260509163916 56 37 12.0 19.0 0.00 0.03 0.03 50 1008.8
20260509163821 56 45 11.0 19.0 0.00 0.03 0.03 51 1008.7
20260509163725 56 40 10.0 19.0 0.00 0.03 0.03 52 1008.8
20260509163632 56 5 8.0 19.0 0.00 0.03 0.03 51 1008.7
20260509163508 56 360 11.0 23.0 0.00 0.03 0.03 51 1008.7
20260509163413 55 338 11.0 23.0 0.00 0.03 0.03 50 1008.6
20260509163317 55 355 9.0 23.0 0.00 0.03 0.03 53 1008.7
20260509163240 55 355 8.0 23.0 0.00 0.03 0.03 53 1008.8
20260509163121 55 19 10.0 23.0 0.00 0.03 0.03 51 1008.7
20260509163045 55 346 12.0 23.0 0.00 0.03 0.03 50 1008.7
20260509162932 55 349 12.0 23.0 0.00 0.03 0.03 51 1008.7
20260509162809 55 18 13.0 23.0 0.00 0.03 0.03 49 1008.7
20260509162711 55 360 13.0 23.0 0.00 0.03 0.03 50 1008.6
20260509162614 55 36 13.0 23.0 0.00 0.03 0.03 50 1008.7
20260509162517 55 26 12.0 23.0 0.00 0.03 0.03 49 1008.6
20260509162420 55 22 12.0 23.0 0.00 0.03 0.03 51 1008.6
20260509162327 55 22 12.0 23.0 0.00 0.03 0.03 50 1008.7
20260509162230 55 15 12.0 23.0 0.00 0.03 0.03 51 1008.7
20260509162107 55 5 12.0 23.0 0.00 0.03 0.03 51 1008.7
20260509162032 55 25 13.0 23.0 0.00 0.03 0.03 51 1008.5
20260509161935 55 24 15.0 23.0 0.00 0.03 0.03 49 1008.6
20260509161839 55 344 16.0 23.0 0.00 0.03 0.03 48 1008.6
20260509161722 55 14 16.0 23.0 0.00 0.03 0.03 49 1008.6
20260509161606 55 351 15.0 23.0 0.00 0.03 0.03 49 1008.6
20260509161515 55 46 14.0 23.0 0.00 0.03 0.03 49 1008.5
20260509161438 55 24 11.0 23.0 0.00 0.03 0.03 51 1008.6
20260509161319 55 36 9.0 23.0 0.00 0.03 0.03 56 1008.5
20260509161242 55 18 9.0 23.0 0.00 0.03 0.03 53 1008.5
20260509161106 55 36 10.0 23.0 0.00 0.03 0.03 54 1008.5
20260509161033 55 22 10.0 23.0 0.00 0.03 0.03 55 1008.5
20260509160908 54 360 9.0 21.0 0.00 0.03 0.03 54 1008.4
20260509160817 54 21 10.0 21.0 0.00 0.03 0.03 53 1008.4
20260509160741 54 44 11.0 21.0 0.00 0.03 0.03 52 1008.4
20260509160625 54 355 13.0 21.0 0.00 0.03 0.03 53 1008.6
20260509160509 54 42 10.0 21.0 0.00 0.03 0.03 53 1008.6
20260509160433 54 24 11.0 21.0 0.00 0.03 0.03 55 1008.3
20260509160337 54 5 14.0 21.0 0.00 0.03 0.03 53 1008.4
20260509160239 54 348 13.0 21.0 0.00 0.03 0.03 54 1008.4
20260509160123 54 331 12.0 21.0 0.00 0.03 0.03 55 1008.4
20260509160031 54 16 12.0 21.0 0.00 0.03 0.03 54 1008.4
20260509155908 54 350 15.0 21.0 0.00 0.03 0.03 53 1008.3
20260509155831 54 360 15.0 21.0 0.00 0.03 0.03 54 1008.3
20260509155707 54 13 15.0 21.0 0.00 0.03 0.03 55 1008.4
20260509155612 54 5 14.0 21.0 0.00 0.03 0.03 56 1008.3
20260509155517 53 344 10.0 21.0 0.00 0.03 0.03 56 1008.4
20260509155425 53 9 11.0 21.0 0.00 0.03 0.03 55 1008.4
20260509155329 54 342 14.0 21.0 0.00 0.03 0.03 54 1008.4
20260509155207 54 355 12.0 21.0 0.00 0.03 0.03 56 1008.3
20260509155112 54 355 12.0 21.0 0.00 0.03 0.03 56 1008.3
20260509155036 54 344 13.0 21.0 0.00 0.03 0.03 56 1008.2
20260509154918 54 360 14.0 21.0 0.00 0.03 0.03 56 1008.2
20260509154842 54 338 14.0 19.0 0.00 0.03 0.03 56 1008.2
20260509154730 54 349 12.0 19.0 0.00 0.03 0.03 58 1008.2
20260509154607 54 344 10.0 16.0 0.00 0.03 0.03 58 1008.1
20260509154531 54 360 10.0 18.0 0.00 0.03 0.03 60 1008.1
20260509154409 54 5 8.0 18.0 0.00 0.03 0.03 61 1008.1
20260509154333 54 42 8.0 18.0 0.00 0.03 0.03 61 1008.2
20260509154217 54 32 8.0 18.0 0.00 0.03 0.03 60 1008.2
20260509154121 54 19 7.0 18.0 0.00 0.03 0.03 59 1008.1
20260509154050 54 12 9.0 19.0 0.00 0.03 0.03 59 1008.1
20260509153907 54 13 12.0 19.0 0.00 0.03 0.03 59 1008.2
20260509153831 54 360 12.0 19.0 0.00 0.03 0.03 59 1008.1
20260509153708 54 9 10.0 19.0 0.00 0.03 0.03 59 1008.1
20260509153613 54 28 10.0 19.0 0.00 0.03 0.03 59 1008.1
20260509153537 54 26 11.0 19.0 0.00 0.03 0.03 57 1008.0
20260509153421 54 333 12.0 19.0 0.00 0.03 0.03 59 1008.0
20260509153309 54 12 14.0 19.0 0.00 0.03 0.03 58 1008.2
20260509153213 54 23 13.0 19.0 0.00 0.03 0.03 58 1007.9
20260509153118 54 348 11.0 19.0 0.00 0.03 0.03 58 1007.9
20260509153042 54 11 9.0 19.0 0.00 0.03 0.03 59 1007.9
20260509152924 54 19 9.0 19.0 0.00 0.03 0.03 60 1007.9
20260509152808 54 11 10.0 19.0 0.00 0.03 0.03 59 1007.9
20260509152716 54 338 10.0 19.0 0.00 0.03 0.03 58 1007.9
20260509152620 54 325 10.0 17.0 0.00 0.03 0.03 59 1007.8
20260509152525 54 337 9.0 17.0 0.00 0.03 0.03 60 1007.9
20260509152409 55 333 8.0 17.0 0.00 0.03 0.03 61 1007.8
20260509152312 55 329 8.0 17.0 0.00 0.03 0.03 62 1007.7
20260509152216 55 330 10.0 17.0 0.00 0.03 0.03 62 1007.8
20260509152145 55 10 9.0 17.0 0.00 0.03 0.03 61 1007.7
20260509152028 55 61 10.0 17.0 0.00 0.03 0.03 62 1007.7
20260509151953 55 348 10.0 16.0 0.00 0.03 0.03 62 1007.8
20260509151809 55 360 11.0 16.0 0.00 0.03 0.03 62 1007.8
20260509151733 55 47 9.0 16.0 0.00 0.03 0.03 64 1007.8
20260509151617 54 330 7.0 16.0 0.00 0.03 0.03 64 1007.7
20260509151520 54 18 9.0 16.0 0.00 0.03 0.03 63 1007.7
20260509151428 54 347 11.0 16.0 0.00 0.03 0.03 64 1007.7
20260509151331 54 343 10.0 16.0 0.00 0.03 0.03 62 1007.7
20260509151209 54 36 10.0 16.0 0.00 0.03 0.03 62 1007.7
20260509151112 54 29 11.0 16.0 0.00 0.03 0.03 62 1007.6
20260509151016 54 66 10.0 16.0 0.00 0.03 0.03 62 1007.5
20260509150921 54 29 10.0 16.0 0.00 0.03 0.03 62 1007.6
20260509150845 54 355 11.0 16.0 0.00 0.03 0.03 61 1007.6
20260509150731 54 360 12.0 16.0 0.00 0.03 0.03 61 1007.6
20260509150609 54 331 11.0 16.0 0.00 0.03 0.03 63 1007.5
20260509150511 54 351 10.0 16.0 0.00 0.03 0.03 63 1007.5
20260509150415 54 350 9.0 16.0 0.00 0.03 0.03 62 1007.5
20260509150318 54 34 10.0 16.0 0.00 0.03 0.03 63 1007.4
20260509150222 54 10 10.0 16.0 0.00 0.03 0.03 63 1007.4
20260509150130 54 10 9.0 16.0 0.00 0.03 0.03 63 1007.4
20260509150013 54 12 9.0 16.0 0.00 0.03 0.03 64 1007.4
20260509145937 54 342 8.0 16.0 0.00 0.03 0.03 65 1007.4
20260509145839 54 329 9.0 16.0 0.00 0.03 0.03 65 1007.4
20260509145723 54 355 9.0 17.0 0.00 0.03 0.03 67 1007.4
20260509145608 53 23 8.0 17.0 0.00 0.03 0.03 68 1007.4
20260509145512 53 350 9.0 17.0 0.00 0.03 0.03 67 1007.3
20260509145420 53 10 10.0 17.0 0.00 0.03 0.03 67 1007.4
20260509145325 53 355 10.0 17.0 0.00 0.03 0.03 67 1007.4
20260509145208 53 51 10.0 17.0 0.00 0.03 0.03 66 1007.3
20260509145111 53 23 11.0 17.0 0.00 0.03 0.03 66 1007.4
20260509145014 54 36 12.0 17.0 0.00 0.03 0.03 66 1007.4
20260509144918 54 30 10.0 17.0 0.00 0.03 0.03 67 1007.4
20260509144826 54 348 8.0 15.0 0.00 0.03 0.03 68 1007.3
20260509144710 54 5 9.0 15.0 0.00 0.03 0.03 68 1007.2
20260509144614 54 355 10.0 15.0 0.00 0.03 0.03 67 1007.3
20260509144537 54 29 9.0 14.0 0.00 0.03 0.03 67 1007.3
20260509144419 54 355 9.0 14.0 0.00 0.03 0.03 70 1007.3
20260509144323 54 5 7.0 12.0 0.00 0.03 0.03 69 1007.3
20260509144211 53 360 6.0 13.0 0.00 0.03 0.03 70 1007.3
20260509144115 53 46 6.0 13.0 0.00 0.03 0.03 70 1007.2
20260509144018 53 36 7.0 13.0 0.00 0.03 0.03 70 1007.2
20260509143922 53 44 7.0 14.0 0.00 0.03 0.03 71 1007.3
20260509143826 53 26 5.0 14.0 0.00 0.03 0.03 71 1007.3
20260509143709 53 40 7.0 14.0 0.00 0.03 0.03 70 1007.3
20260509143634 53 355 8.0 14.0 0.00 0.03 0.03 69 1007.2
20260509143521 53 5 9.0 14.0 0.00 0.03 0.03 69 1007.3
20260509143426 53 53 8.0 14.0 0.00 0.03 0.03 70 1007.3
20260509143310 53 65 8.0 14.0 0.00 0.03 0.03 69 1007.3
20260509143214 53 21 9.0 16.0 0.00 0.03 0.03 70 1007.2
20260509143117 53 5 9.0 16.0 0.00 0.03 0.03 70 1007.2
20260509143021 53 346 9.0 16.0 0.00 0.03 0.03 71 1007.1
20260509142949 53 24 9.0 16.0 0.00 0.03 0.03 71 1007.1
20260509142911 53 331 9.0 16.0 0.00 0.03 0.03 71 1007.1
20260509142815 53 5 9.0 16.0 0.00 0.03 0.03 71 1007.1
20260509142529 53 360 7.0 16.0 0.00 0.03 0.03 71 1007.1
20260509142412 53 15 8.0 16.0 0.00 0.03 0.03 71 1007.1
20260509142316 53 25 7.0 15.0 0.00 0.03 0.03 72 1007.1
20260509142219 53 37 8.0 15.0 0.00 0.03 0.03 72 1007.1
20260509142127 53 360 10.0 15.0 0.00 0.03 0.03 72 1007.1
20260509142029 53 5 9.0 15.0 0.00 0.03 0.03 73 1007.1
20260509141911 53 355 8.0 15.0 0.00 0.03 0.03 73 1007.0
20260509141814 52 360 8.0 15.0 0.00 0.03 0.03 73 1007.0
20260509141717 52 345 9.0 15.0 0.00 0.03 0.03 73 1007.0
20260509141620 52 22 9.0 15.0 0.00 0.03 0.03 72 1007.0
20260509141523 52 5 8.0 14.0 0.00 0.03 0.03 73 1007.0
20260509141431 52 12 8.0 14.0 0.00 0.03 0.03 73 1006.9
20260509141306 52 360 10.0 14.0 0.00 0.03 0.03 73 1007.0
20260509141208 52 9 11.0 16.0 0.00 0.03 0.03 73 1007.0
20260509141111 52 15 10.0 16.0 0.00 0.03 0.03 73 1007.0
20260509141013 52 355 10.0 16.0 0.00 0.03 0.03 73 1007.0
20260509140937 52 351 9.0 16.0 0.00 0.03 0.03 74 1006.9
20260509140820 52 12 9.0 16.0 0.00 0.03 0.03 74 1006.9
20260509140706 52 31 9.0 16.0 0.00 0.03 0.03 74 1006.9
20260509140609 52 24 9.0 16.0 0.00 0.03 0.03 75 1007.0
20260509140533 52 319 9.0 16.0 0.00 0.03 0.03 75 1007.0
20260509140408 52 23 10.0 17.0 0.00 0.03 0.03 75 1006.9
20260509140311 51 5 10.0 17.0 0.00 0.03 0.03 77 1006.8
20260509140215 51 333 9.0 17.0 0.00 0.03 0.03 76 1006.8
20260509140142 51 5 8.0 17.0 0.00 0.03 0.03 76 1006.8
20260509140023 51 42 7.0 17.0 0.00 0.03 0.03 77 1006.9
20260509135926 51 14 7.0 17.0 0.00 0.03 0.03 77 1006.8
20260509135829 51 27 7.0 17.0 0.00 0.03 0.03 76 1006.8
20260509135710 51 360 9.0 17.0 0.00 0.03 0.03 75 1006.9
20260509135613 51 33 11.0 17.0 0.00 0.03 0.03 76 1006.9
20260509135536 51 26 9.0 15.0 0.00 0.03 0.03 77 1006.9
20260509135422 51 346 8.0 15.0 0.00 0.03 0.03 77 1006.9
20260509135326 51 9 9.0 15.0 0.00 0.03 0.03 76 1006.8
20260509135209 51 355 10.0 15.0 0.00 0.03 0.03 77 1006.9
20260509135132 51 342 9.0 15.0 0.00 0.03 0.03 77 1006.8
20260509135008 51 16 8.0 15.0 0.00 0.03 0.03 76 1006.8
20260509134931 51 348 8.0 15.0 0.00 0.03 0.03 77 1006.8
20260509134834 51 31 8.0 15.0 0.00 0.03 0.03 77 1006.8
20260509134720 51 18 7.0 15.0 0.00 0.03 0.03 79 1006.7
20260509134624 51 44 7.0 15.0 0.00 0.03 0.03 79 1006.8
20260509134526 51 346 7.0 16.0 0.00 0.03 0.03 79 1006.8
20260509134430 51 37 8.0 16.0 0.00 0.03 0.03 80 1006.8
20260509134312 51 355 9.0 16.0 0.00 0.03 0.03 79 1006.8
20260509134215 51 11 9.0 16.0 0.00 0.03 0.03 80 1006.7
20260509134117 51 344 8.0 16.0 0.00 0.03 0.03 80 1006.7
20260509134025 51 67 8.0 16.0 0.00 0.03 0.03 80 1006.7
20260509133929 51 49 10.0 16.0 0.00 0.03 0.03 80 1006.8
20260509133811 51 16 9.0 16.0 0.00 0.03 0.03 80 1006.7
20260509133713 51 355 8.0 16.0 0.00 0.03 0.03 82 1006.8
20260509133617 51 19 7.0 14.0 0.00 0.03 0.03 82 1006.8
20260509133541 51 30 6.0 14.0 0.00 0.03 0.03 82 1006.7
20260509133444 51 16 7.0 14.0 0.00 0.03 0.03 82 1006.6
20260509133330 51 42 7.0 14.0 0.00 0.03 0.03 83 1006.6
20260509133207 51 338 8.0 14.0 0.00 0.03 0.03 82 1006.5
20260509133110 50 25 8.0 14.0 0.00 0.03 0.03 83 1006.5
20260509133013 50 347 6.0 14.0 0.00 0.03 0.03 83 1006.5
20260509132916 50 5 6.0 14.0 0.00 0.03 0.03 83 1006.7
20260509132819 50 46 9.0 14.0 0.00 0.03 0.03 83 1006.6
20260509132742 50 46 9.0 14.0 0.00 0.03 0.03 84 1006.5
20260509132608 50 16 8.0 14.0 0.00 0.03 0.03 84 1006.5
20260509132509 50 19 7.0 14.0 0.00 0.03 0.03 84 1006.5
20260509132433 50 48 8.0 14.0 0.00 0.03 0.03 84 1006.5
20260509132310 50 344 7.0 14.0 0.00 0.03 0.03 85 1006.4
20260509132214 50 30 7.0 14.0 0.00 0.03 0.03 85 1006.4
20260509132139 50 13 7.0 14.0 0.00 0.03 0.03 86 1006.4
20260509132021 50 30 8.0 14.0 0.00 0.03 0.03 86 1006.4
20260509131909 50 5 7.0 14.0 0.00 0.03 0.03 86 1006.4
20260509131833 50 30 7.0 12.0 0.00 0.03 0.03 86 1006.4
20260509131709 50 24 7.0 12.0 0.00 0.03 0.03 86 1006.3
20260509131613 50 39 7.0 12.0 0.00 0.03 0.03 86 1006.3
20260509131515 50 30 7.0 12.0 0.00 0.03 0.03 87 1006.3
20260509131419 49 14 7.0 12.0 0.00 0.03 0.03 87 1006.3
20260509131326 49 5 7.0 12.0 0.00 0.03 0.03 87 1006.3
20260509131251 49 61 7.0 12.0 0.00 0.03 0.03 87 1006.2
20260509131154 49 360 7.0 11.0 0.00 0.03 0.03 87 1006.1
20260509131010 49 5 6.0 10.0 0.00 0.03 0.03 87 1006.2
20260509130915 49 44 6.0 10.0 0.00 0.03 0.03 87 1006.2
20260509130819 49 5 7.0 10.0 0.00 0.03 0.03 88 1006.2
20260509130742 49 17 6.0 10.0 0.00 0.03 0.03 88 1006.2
20260509130629 49 5 7.0 10.0 0.00 0.03 0.03 89 1006.2
20260509130507 49 349 6.0 11.0 0.00 0.03 0.03 89 1006.1
20260509130411 49 5 4.0 11.0 0.00 0.03 0.03 89 1006.1
20260509130315 49 30 3.0 12.0 0.00 0.03 0.03 89 1006.0
20260509130238 49 9 3.0 12.0 0.00 0.03 0.03 88 1006.0
20260509130122 49 52 4.0 12.0 0.00 0.03 0.03 88 1006.1
20260509130047 49 5 5.0 12.0 0.00 0.03 0.03 88 1006.0
20260509125914 49 5 6.0 12.0 0.00 0.03 0.03 88 1006.0
20260509125838 49 360 7.0 12.0 0.00 0.03 0.03 88 1006.0
20260509125741 49 350 8.0 12.0 0.00 0.03 0.03 88 1006.1
20260509125644 49 5 8.0 12.0 0.00 0.03 0.03 88 1006.1
20260509125547 49 355 8.0 12.0 0.00 0.03 0.03 88 1006.0
20260509125431 49 348 7.0 14.0 0.00 0.03 0.03 89 1006.1
20260509125315 49 15 7.0 14.0 0.00 0.03 0.03 89 1006.2
20260509125238 49 22 6.0 14.0 0.00 0.03 0.03 89 1006.1
20260509125122 49 17 5.0 14.0 0.00 0.03 0.03 89 1006.1
20260509125010 49 17 6.0 14.0 0.00 0.03 0.03 89 1006.0
20260509124913 49 5 7.0 14.0 0.00 0.03 0.03 89 1006.0
20260509124818 49 30 8.0 14.0 0.00 0.03 0.03 89 1006.0
20260509124742 49 5 8.0 14.0 0.00 0.03 0.03 89 1006.0
20260509124625 49 360 8.0 14.0 0.00 0.03 0.03 89 1006.1
20260509124528 49 360 9.0 14.0 0.00 0.03 0.03 89 1006.0
20260509124432 49 13 8.0 12.0 0.00 0.03 0.03 89 1006.0
20260509124319 49 349 7.0 12.0 0.00 0.03 0.03 89 1005.9
20260509124224 49 5 6.0 12.0 0.00 0.03 0.03 89 1005.9
20260509124129 49 16 6.0 13.0 0.00 0.03 0.03 89 1005.8
20260509124012 49 360 6.0 14.0 0.00 0.03 0.03 89 1005.8
20260509123936 49 16 7.0 14.0 0.00 0.03 0.03 89 1005.8
20260509123819 49 344 7.0 14.0 0.00 0.03 0.03 89 1005.8
20260509123723 49 5 6.0 14.0 0.00 0.03 0.03 89 1005.7
20260509123651 49 9 6.0 14.0 0.00 0.03 0.03 89 1005.7
20260509123507 49 5 6.0 14.0 0.00 0.03 0.03 89 1005.6
20260509123411 49 355 8.0 14.0 0.00 0.03 0.03 89 1005.6
20260509123316 49 11 10.0 14.0 0.00 0.03 0.03 89 1005.6
20260509123220 49 348 10.0 14.0 0.00 0.03 0.03 90 1005.7
20260509123124 49 347 7.0 14.0 0.00 0.03 0.03 90 1005.7
20260509123012 49 11 5.0 14.0 0.00 0.03 0.03 90 1005.6
20260509122916 49 335 8.0 14.0 0.00 0.03 0.03 90 1005.6
20260509122820 49 301 9.0 14.0 0.00 0.03 0.03 90 1005.5
20260509122743 49 360 8.0 14.0 0.00 0.03 0.03 90 1005.5
20260509122626 49 329 8.0 16.0 0.00 0.03 0.03 90 1005.5
20260509122531 49 360 8.0 16.0 0.00 0.03 0.03 91 1005.6
20260509122413 49 360 7.0 17.0 0.00 0.03 0.03 91 1005.6
20260509122321 49 355 5.0 17.0 0.00 0.03 0.03 91 1005.6
20260509122225 49 355 5.0 17.0 0.00 0.03 0.03 91 1005.4
20260509122130 49 348 7.0 17.0 0.00 0.03 0.03 91 1005.5
20260509122007 48 316 11.0 17.0 0.00 0.03 0.03 91 1005.4
20260509121932 48 341 10.0 17.0 0.00 0.03 0.03 91 1005.4
20260509121816 48 17 8.0 17.0 0.00 0.03 0.03 91 1005.4
20260509121723 48 348 9.0 17.0 0.00 0.03 0.03 91 1005.3
20260509121608 48 355 9.0 17.0 0.00 0.03 0.03 91 1005.3
20260509121512 48 341 7.0 13.0 0.00 0.03 0.03 91 1005.4
20260509121436 48 351 6.0 13.0 0.00 0.03 0.03 91 1005.5
20260509121318 48 309 6.0 13.0 0.00 0.03 0.03 91 1005.4
20260509121224 48 23 8.0 13.0 0.00 0.03 0.03 91 1005.3
20260509121112 48 355 8.0 13.0 0.00 0.03 0.03 91 1005.3
20260509121037 48 350 7.0 13.0 0.00 0.03 0.03 91 1005.3
20260509120920 48 351 9.0 13.0 0.00 0.03 0.03 91 1005.3
20260509120826 48 355 10.0 13.0 0.00 0.03 0.03 91 1005.3
20260509120730 48 355 9.0 12.0 0.00 0.03 0.03 92 1005.3
20260509120612 48 5 8.0 11.0 0.00 0.03 0.03 92 1005.2
20260509120518 48 340 6.0 11.0 0.00 0.03 0.03 92 1005.1
20260509120424 48 349 5.0 11.0 0.00 0.03 0.03 92 1005.1
20260509120307 48 322 5.0 11.0 0.00 0.03 0.03 92 1005.0
20260509120212 48 355 6.0 11.0 0.00 0.03 0.03 92 1005.0
20260509120115 48 345 6.0 11.0 0.00 0.03 0.03 92 1005.0
20260509120018 48 355 7.0 11.0 0.00 0.03 0.03 92 1005.0
20260509115922 48 341 7.0 11.0 0.00 0.03 0.03 92 1005.0
20260509115810 48 330 5.0 11.0 0.00 0.03 0.03 92 1004.9
20260509115714 48 12 4.0 6.0 0.00 0.03 0.03 92 1004.9
20260509115618 48 350 4.0 6.0 0.00 0.03 0.03 92 1004.9
20260509115522 48 355 4.0 6.0 0.00 0.03 0.03 92 1004.9
20260509115426 48 10 4.0 6.0 0.00 0.03 0.03 92 1004.9
20260509115309 48 355 2.0 6.0 0.00 0.03 0.03 92 1004.9
20260509115216 48 342 3.0 6.0 0.00 0.03 0.03 92 1004.8
20260509115121 48 346 4.0 6.0 0.00 0.03 0.03 92 1004.9
20260509115023 48 15 4.0 6.0 0.00 0.03 0.03 92 1004.9
20260509114907 48 5 3.0 6.0 0.00 0.03 0.03 92 1004.9
20260509114811 48 355 3.0 6.0 0.00 0.03 0.03 92 1004.8
20260509114716 48 355 4.0 6.0 0.00 0.03 0.03 92 1004.8
20260509114624 48 19 4.0 6.0 0.00 0.03 0.03 92 1004.7
20260509114528 48 355 4.0 6.0 0.00 0.03 0.03 92 1004.8
20260509114406 48 17 4.0 6.0 0.00 0.03 0.03 92 1004.7
20260509114331 48 355 4.0 6.0 0.00 0.03 0.03 92 1004.8
20260509114215 48 355 4.0 6.0 0.00 0.03 0.03 92 1004.8
20260509114120 48 350 4.0 8.0 0.00 0.03 0.03 92 1004.7
20260509114030 48 31 3.0 8.0 0.00 0.03 0.03 92 1004.7
20260509113906 47 9 3.0 8.0 0.00 0.03 0.03 92 1004.7
20260509113830 47 5 3.0 8.0 0.00 0.03 0.03 92 1004.7
20260509113708 47 5 2.0 8.0 0.00 0.03 0.03 92 1004.7
20260509113633 47 328 2.0 8.0 0.01 0.03 0.03 91 1004.7
20260509113509 47 343 2.0 8.0 0.01 0.03 0.03 91 1004.6
20260509113419 47 343 3.0 8.0 0.01 0.03 0.03 91 1004.6
20260509113343 47 337 4.0 8.0 0.01 0.03 0.03 91 1004.6
20260509113228 47 345 4.0 5.0 0.01 0.03 0.03 92 1004.6
20260509113131 47 351 4.0 5.0 0.01 0.03 0.03 92 1004.5
20260509113008 47 355 3.0 4.0 0.02 0.03 0.03 91 1004.6
20260509112912 47 331 2.0 4.0 0.02 0.03 0.03 91 1004.5
20260509112818 47 316 2.0 4.0 0.02 0.03 0.03 91 1004.5
20260509112740 47 346 2.0 4.0 0.02 0.03 0.03 91 1004.5
20260509112607 47 351 1.0 5.0 0.02 0.03 0.03 91 1004.5
20260509112533 47 351 1.0 5.0 0.02 0.03 0.03 91 1004.5
20260509112410 47 351 2.0 5.0 0.02 0.03 0.03 91 1004.4
20260509112334 47 351 2.0 5.0 0.02 0.03 0.03 91 1004.4
20260509112216 47 351 2.0 5.0 0.02 0.03 0.03 91 1004.4
20260509112121 47 347 2.0 5.0 0.02 0.03 0.03 91 1004.4
20260509112008 47 340 2.0 5.0 0.02 0.03 0.03 91 1004.3
20260509111911 47 329 3.0 5.0 0.02 0.03 0.03 91 1004.3
20260509111814 47 355 3.0 5.0 0.02 0.03 0.03 91 1004.3
20260509111717 47 339 3.0 5.0 0.03 0.03 0.03 91 1004.3
20260509111622 47 360 2.0 4.0 0.03 0.03 0.03 91 1004.2
20260509111543 47 360 2.0 4.0 0.03 0.03 0.03 91 1004.2
20260509111411 48 355 2.0 4.0 0.03 0.03 0.03 91 1004.2
20260509111314 48 332 2.0 4.0 0.03 0.03 0.03 90 1004.2
20260509111219 47 329 2.0 4.0 0.03 0.03 0.03 90 1004.0
20260509111123 47 15 2.0 4.0 0.03 0.03 0.03 90 1004.0
20260509111045 48 16 2.0 4.0 0.03 0.03 0.03 90 1004.0
20260509110910 48 355 2.0 4.0 0.03 0.03 0.03 90 1004.0
20260509110815 48 355 2.0 4.0 0.03 0.03 0.03 90 1004.0
20260509110726 48 333 2.0 4.0 0.03 0.03 0.03 90 1004.0
20260509110646 48 333 2.0 4.0 0.03 0.03 0.03 90 1004.0
20260509110511 48 349 2.0 4.0 0.03 0.03 0.03 90 1003.8
20260509110416 48 348 2.0 4.0 0.03 0.03 0.03 90 1003.9
20260509110321 48 350 2.0 4.0 0.03 0.03 0.03 90 1003.9
20260509110207 48 350 2.0 4.0 0.03 0.03 0.03 90 1003.9
20260509110135 48 350 2.0 4.0 0.03 0.03 0.03 90 1003.9
20260509110040 48 345 3.0 4.0 0.03 0.03 0.03 90 1003.9
20260509105944 48 13 3.0 4.0 0.03 0.03 0.03 90 1003.8
20260509105809 48 10 2.0 4.0 0.03 0.03 0.03 90 1003.8
20260509105715 48 307 2.0 5.0 0.03 0.03 0.03 90 1003.8
20260509105620 48 10 2.0 5.0 0.03 0.03 0.03 90 1003.8
20260509105525 48 11 2.0 5.0 0.03 0.03 0.03 89 1003.9
20260509105432 48 13 2.0 5.0 0.03 0.03 0.03 89 1003.8
20260509105316 48 17 2.0 5.0 0.03 0.03 0.03 89 1003.7
20260509105220 48 22 2.0 5.0 0.03 0.03 0.03 89 1003.8
20260509105106 48 22 2.0 5.0 0.03 0.03 0.03 89 1003.7
20260509105031 48 23 3.0 5.0 0.03 0.03 0.03 89 1003.7
20260509104934 48 23 4.0 5.0 0.03 0.03 0.03 89 1003.7
20260509104809 48 355 4.0 5.0 0.03 0.03 0.03 89 1003.7
20260509104718 48 351 3.0 4.0 0.03 0.03 0.03 89 1003.6
20260509104622 48 9 2.0 3.0 0.03 0.03 0.03 89 1003.7
20260509104507 48 5 2.0 4.0 0.03 0.03 0.03 89 1003.7
20260509104410 48 5 2.0 4.0 0.03 0.03 0.03 89 1003.6
20260509104315 48 5 2.0 4.0 0.03 0.03 0.03 88 1003.6
20260509104219 48 360 2.0 4.0 0.03 0.03 0.03 88 1003.5
20260509104127 48 330 2.0 4.0 0.03 0.03 0.03 88 1003.5
20260509104031 48 325 2.0 4.0 0.03 0.03 0.03 88 1003.5
20260509103908 48 331 1.0 4.0 0.03 0.03 0.03 88 1003.4
20260509103813 48 331 2.0 4.0 0.03 0.03 0.03 88 1003.4
20260509103717 48 330 1.0 4.0 0.03 0.03 0.03 88 1003.4
20260509103622 48 338 1.0 4.0 0.02 0.02 0.02 88 1003.4
20260509103529 48 14 1.0 4.0 0.02 0.02 0.02 88 1003.5
20260509103453 48 14 1.0 4.0 0.02 0.02 0.02 88 1003.4
20260509103308 48 14 1.0 4.0 0.02 0.02 0.02 87 1003.4
20260509103231 48 14 2.0 4.0 0.02 0.02 0.02 87 1003.4
20260509103114 48 13 2.0 4.0 0.01 0.01 0.01 87 1003.5
20260509103019 48 13 3.0 4.0 0.01 0.01 0.01 87 1003.6
20260509102923 48 15 3.0 4.0 0.01 0.01 0.01 87 1003.6
20260509102831 48 43 2.0 4.0 0.01 0.01 0.01 87 1003.6
20260509102734 48 43 2.0 4.0 0.01 0.01 0.01 87 1003.5
20260509102610 48 49 2.0 3.0 0.01 0.01 0.01 86 1003.5
20260509102513 48 49 1.0 3.0 0.01 0.01 0.01 86 1003.4
20260509102437 48 49 1.0 3.0 0.01 0.01 0.01 86 1003.4
20260509102319 48 49 2.0 3.0 0.01 0.01 0.01 86 1003.3
20260509102223 49 49 2.0 3.0 0.01 0.01 0.01 86 1003.3
20260509102111 49 50 0.0 3.0 0.01 0.01 0.01 85 1003.3
20260509102036 49 50 1.0 3.0 0.01 0.01 0.01 85 1003.4
20260509101919 49 50 2.0 3.0 0.01 0.01 0.01 85 1003.4
20260509101822 49 50 2.0 3.0 0.00 0.00 0.00 85 1003.5
20260509101707 49 50 2.0 3.0 0.00 0.00 0.00 85 1003.5
20260509101611 49 50 2.0 3.0 0.00 0.00 0.00 85 1003.5
20260509101535 49 50 1.0 3.0 0.00 0.00 0.00 84 1003.5
20260509101422 49 50 1.0 3.0 0.00 0.00 0.00 84 1003.4
20260509101307 49 50 0.0 3.0 0.00 0.00 0.00 84 1003.3
20260509101231 49 50 1.0 3.0 0.00 0.00 0.00 84 1003.4
20260509101107 49 50 2.0 3.0 0.00 0.00 0.00 84 1003.3
20260509101011 49 50 2.0 3.0 0.00 0.00 0.00 84 1003.4
20260509100915 49 51 2.0 3.0 0.00 0.00 0.00 83 1003.4
20260509100823 49 51 2.0 3.0 0.00 0.00 0.00 83 1003.4
20260509100707 49 51 2.0 3.0 0.00 0.00 0.00 83 1003.4
20260509100631 49 51 2.0 3.0 0.00 0.00 0.00 83 1003.3
20260509100508 49 51 1.0 2.0 0.00 0.00 0.00 82 1003.3
20260509100412 49 51 0.0 2.0 0.00 0.00 0.00 82 1003.2
20260509100316 49 51 0.0 2.0 0.00 0.00 0.00 82 1003.3
20260509100224 49 51 1.0 2.0 0.00 0.00 0.00 82 1003.2
20260509100129 49 51 1.0 2.0 0.00 0.00 0.00 82 1003.2
20260509100006 49 51 0.0 2.0 0.00 0.00 0.00 82 1003.3
20260509095911 50 51 0.0 2.0 0.00 0.00 0.00 82 1003.3
20260509095817 50 51 0.0 3.0 0.00 0.00 0.00 81 1003.2
20260509095739 50 51 0.0 3.0 0.00 0.00 0.00 81 1003.3
20260509095606 50 51 0.0 3.0 0.00 0.00 0.00 81 1003.3
20260509095510 50 51 1.0 6.0 0.00 0.00 0.00 81 1003.3
20260509095434 50 51 1.0 6.0 0.00 0.00 0.00 81 1003.4
20260509095317 50 51 2.0 6.0 0.00 0.00 0.00 81 1003.3
20260509095220 50 51 2.0 6.0 0.00 0.00 0.00 80 1003.4
20260509095123 50 51 2.0 6.0 0.00 0.00 0.00 80 1003.4
20260509095027 50 51 2.0 6.0 0.00 0.00 0.00 79 1003.5
20260509094931 50 51 2.0 6.0 0.00 0.00 0.00 80 1003.3
20260509094806 50 51 3.0 6.0 0.00 0.00 0.00 79 1003.3
20260509094730 50 51 4.0 6.0 0.00 0.00 0.00 79 1003.3
20260509094607 50 10 4.0 8.0 0.00 0.00 0.00 78 1003.4
20260509094509 50 34 4.0 8.0 0.00 0.00 0.00 78 1003.5
20260509094413 50 24 4.0 8.0 0.00 0.00 0.00 78 1003.5
20260509094319 50 40 3.0 8.0 0.00 0.00 0.00 77 1003.5
20260509094206 51 35 3.0 8.0 0.00 0.00 0.00 77 1003.5
20260509094130 51 35 4.0 9.0 0.00 0.00 0.00 77 1003.6
20260509094007 51 44 3.0 9.0 0.00 0.00 0.00 76 1003.7
20260509093911 51 26 3.0 9.0 0.00 0.00 0.00 75 1003.6
20260509093815 51 26 4.0 9.0 0.00 0.00 0.00 75 1003.7
20260509093739 51 360 4.0 9.0 0.00 0.00 0.00 75 1003.7
20260509093606 51 17 4.0 9.0 0.00 0.00 0.00 74 1003.7
20260509093509 51 5 4.0 9.0 0.00 0.00 0.00 74 1003.8
20260509093412 51 26 6.0 10.0 0.00 0.00 0.00 73 1003.7
20260509093336 51 360 7.0 10.0 0.00 0.00 0.00 73 1003.6
20260509093218 51 15 6.0 10.0 0.00 0.00 0.00 73 1003.7
20260509093121 51 15 5.0 10.0 0.00 0.00 0.00 73 1003.8
20260509093045 52 5 3.0 10.0 0.00 0.00 0.00 72 1003.8
20260509092931 52 5 3.0 10.0 0.00 0.00 0.00 72 1003.8
20260509092807 52 340 4.0 10.0 0.00 0.00 0.00 71 1003.8
20260509092711 52 340 5.0 10.0 0.00 0.00 0.00 70 1003.8
20260509092613 52 5 6.0 10.0 0.00 0.00 0.00 70 1003.8
20260509092516 52 355 6.0 10.0 0.00 0.00 0.00 69 1003.8
20260509092418 52 355 5.0 10.0 0.00 0.00 0.00 69 1003.8
20260509092342 52 5 5.0 11.0 0.00 0.00 0.00 68 1003.8
20260509092228 52 11 6.0 11.0 0.00 0.00 0.00 68 1003.8
20260509092110 52 348 6.0 11.0 0.00 0.00 0.00 68 1003.8
20260509092032 52 32 6.0 11.0 0.00 0.00 0.00 67 1003.8
20260509091936 52 12 6.0 11.0 0.00 0.00 0.00 67 1003.7
20260509091837 52 348 6.0 11.0 0.00 0.00 0.00 66 1003.7
20260509091716 52 355 7.0 11.0 0.00 0.00 0.00 66 1003.7
20260509091619 52 40 7.0 11.0 0.00 0.00 0.00 65 1003.7
20260509091522 52 360 6.0 9.0 0.00 0.00 0.00 65 1003.7
20260509091431 52 11 5.0 9.0 0.00 0.00 0.00 65 1003.7
20260509091308 52 11 4.0 9.0 0.00 0.00 0.00 64 1003.7
20260509091232 52 11 4.0 9.0 0.00 0.00 0.00 64 1003.6
20260509091107 52 21 5.0 10.0 0.00 0.00 0.00 64 1003.6
20260509091031 52 13 4.0 10.0 0.00 0.00 0.00 64 1003.6
20260509090907 52 43 4.0 10.0 0.00 0.00 0.00 63 1003.4
20260509090830 52 355 4.0 10.0 0.00 0.00 0.00 63 1003.4
20260509090717 52 54 4.0 10.0 0.00 0.00 0.00 63 1003.4
20260509090621 52 18 5.0 10.0 0.00 0.00 0.00 62 1003.3
20260509090543 52 33 5.0 10.0 0.00 0.00 0.00 62 1003.4
20260509090427 52 33 5.0 10.0 0.00 0.00 0.00 62 1003.3
20260509090307 52 355 5.0 10.0 0.00 0.00 0.00 61 1003.3
20260509090211 52 37 6.0 10.0 0.00 0.00 0.00 61 1003.3
20260509090135 52 39 6.0 10.0 0.00 0.00 0.00 61 1003.3
20260509090038 52 17 6.0 10.0 0.00 0.00 0.00 60 1003.3
20260509085924 52 355 5.0 9.0 0.00 0.00 0.00 60 1003.3
20260509085828 52 36 3.0 11.0 0.00 0.00 0.00 59 1003.3
20260509085710 52 28 3.0 13.0 0.00 0.00 0.00 59 1003.3
20260509085613 52 28 4.0 13.0 0.00 0.00 0.00 59 1003.4
20260509085517 52 22 4.0 13.0 0.00 0.00 0.00 59 1003.4
20260509085440 52 30 4.0 13.0 0.00 0.00 0.00 58 1003.3
20260509085342 52 35 6.0 13.0 0.00 0.00 0.00 59 1003.4
20260509085210 52 22 6.0 13.0 0.00 0.00 0.00 58 1003.5
20260509085132 52 30 7.0 13.0 0.00 0.00 0.00 58 1003.5
20260509085008 52 12 7.0 13.0 0.00 0.00 0.00 58 1003.5
20260509084933 52 333 8.0 13.0 0.00 0.00 0.00 58 1003.5
20260509084809 52 26 7.0 13.0 0.00 0.00 0.00 57 1003.5
20260509084711 52 25 4.0 11.0 0.00 0.00 0.00 57 1003.5
20260509084618 52 355 5.0 10.0 0.00 0.00 0.00 56 1003.5
20260509084522 52 33 5.0 10.0 0.00 0.00 0.00 56 1003.4
20260509084445 52 5 5.0 10.0 0.00 0.00 0.00 56 1003.4
20260509084308 52 21 6.0 10.0 0.00 0.00 0.00 56 1003.4
20260509084212 52 15 6.0 10.0 0.00 0.00 0.00 56 1003.5
20260509084114 52 355 6.0 10.0 0.00 0.00 0.00 56 1003.5
20260509084017 52 5 6.0 10.0 0.00 0.00 0.00 55 1003.4
20260509083924 52 355 6.0 9.0 0.00 0.00 0.00 55 1003.4
20260509083827 52 355 6.0 9.0 0.00 0.00 0.00 55 1003.4
20260509083750 52 5 5.0 9.0 0.00 0.00 0.00 55 1003.4
20260509083606 52 13 3.0 9.0 0.00 0.00 0.00 55 1003.3
20260509083531 52 41 3.0 9.0 0.00 0.00 0.00 55 1003.3
20260509083407 52 355 4.0 9.0 0.00 0.00 0.00 55 1003.3
20260509083316 51 338 4.0 9.0 0.00 0.00 0.00 55 1003.3
20260509083218 51 348 4.0 9.0 0.00 0.00 0.00 55 1003.4
20260509083122 51 360 5.0 9.0 0.00 0.00 0.00 55 1003.4
20260509083027 51 5 5.0 9.0 0.00 0.00 0.00 55 1003.3
20260509082930 51 331 4.0 9.0 0.00 0.00 0.00 55 1003.2
20260509082806 51 15 3.0 9.0 0.00 0.00 0.00 55 1003.3
20260509082710 51 343 4.0 10.0 0.00 0.00 0.00 55 1003.2
20260509082619 51 5 4.0 10.0 0.00 0.00 0.00 55 1003.3
20260509082544 51 355 5.0 10.0 0.00 0.00 0.00 56 1003.3
20260509082428 51 325 5.0 10.0 0.00 0.00 0.00 55 1003.3
20260509082312 51 333 5.0 10.0 0.00 0.00 0.00 55 1003.3
20260509082236 51 5 6.0 10.0 0.00 0.00 0.00 55 1003.3
20260509082118 51 334 6.0 10.0 0.00 0.00 0.00 55 1003.4
20260509082023 51 20 6.0 10.0 0.00 0.00 0.00 56 1003.3
20260509081930 51 11 5.0 10.0 0.00 0.00 0.00 57 1003.3
20260509081814 51 355 5.0 10.0 0.00 0.00 0.00 57 1003.3
20260509081717 50 355 5.0 10.0 0.00 0.00 0.00 57 1003.2
20260509081621 50 25 5.0 10.0 0.00 0.00 0.00 57 1003.2
20260509081524 50 360 4.0 10.0 0.00 0.00 0.00 58 1003.1
20260509081409 50 16 3.0 9.0 0.00 0.00 0.00 59 1003.1
20260509081316 50 347 3.0 9.0 0.00 0.00 0.00 59 1003.1
20260509081221 50 17 5.0 9.0 0.00 0.00 0.00 59 1003.2
20260509081125 50 18 5.0 9.0 0.00 0.00 0.00 59 1003.1
20260509081028 49 351 4.0 9.0 0.00 0.00 0.00 61 1003.1
20260509080911 49 360 3.0 9.0 0.00 0.00 0.00 60 1003.1
20260509080816 49 327 4.0 9.0 0.00 0.00 0.00 61 1003.2
20260509080720 49 334 5.0 9.0 0.00 0.00 0.00 61 1003.2
20260509080628 49 346 5.0 9.0 0.00 0.00 0.00 62 1003.1
20260509080506 48 331 4.0 9.0 0.00 0.00 0.00 65 1003.2
20260509080410 48 355 4.0 9.0 0.00 0.00 0.00 65 1003.2
20260509080314 48 355 4.0 9.0 0.00 0.00 0.00 67 1003.0
20260509080237 48 340 3.0 6.0 0.00 0.00 0.00 68 1003.1
20260509080119 48 342 3.0 5.0 0.00 0.00 0.00 68 1003.1
20260509075931 48 53 2.0 4.0 0.00 0.00 0.00 68 1003.0
20260509075808 48 56 2.0 4.0 0.00 0.00 0.00 68 1003.0
20260509075712 48 69 2.0 4.0 0.00 0.00 0.00 69 1003.1
20260509075636 48 69 2.0 4.0 0.00 0.00 0.00 71 1003.1
20260509075520 48 69 2.0 3.0 0.00 0.00 0.00 69 1003.1
20260509075408 48 69 2.0 3.0 0.00 0.00 0.00 69 1003.1
20260509075332 48 69 2.0 3.0 0.00 0.00 0.00 69 1003.0
20260509075210 48 69 2.0 3.0 0.00 0.00 0.00 69 1002.9
20260509075113 48 69 2.0 2.0 0.00 0.00 0.00 69 1002.8
20260509075017 48 69 1.0 2.0 0.00 0.00 0.00 68 1002.8
20260509074921 48 69 1.0 2.0 0.00 0.00 0.00 66 1002.7
20260509074846 48 69 0.0 2.0 0.00 0.00 0.00 67 1002.6
20260509074732 48 69 0.0 0.0 0.00 0.00 0.00 67 1002.5
20260509074610 48 69 0.0 0.0 0.00 0.00 0.00 67 1002.4
20260509074515 48 69 0.0 0.0 0.00 0.00 0.00 67 1002.4
20260509074419 48 69 0.0 0.0 0.00 0.00 0.00 68 1002.4
20260509074323 48 69 0.0 0.0 0.00 0.00 0.00 68 1002.4
20260509074229 48 69 0.0 0.0 0.00 0.00 0.00 68 1002.5
20260509074131 48 69 0.0 0.0 0.00 0.00 0.00 68 1002.4
20260509074018 48 69 0.0 0.0 0.00 0.00 0.00 68 1002.4
20260509073922 48 69 0.0 1.0 0.00 0.00 0.00 68 1002.5
20260509073807 48 69 0.0 1.0 0.00 0.00 0.00 68 1002.5
20260509073712 48 69 0.0 2.0 0.00 0.00 0.00 69 1002.6
20260509073616 48 69 0.0 2.0 0.00 0.00 0.00 69 1002.5
20260509073521 48 69 0.0 2.0 0.00 0.00 0.00 69 1002.6
20260509073429 48 69 0.0 2.0 0.00 0.00 0.00 70 1002.6
20260509073306 48 69 0.0 2.0 0.00 0.00 0.00 70 1002.6
20260509073211 48 69 0.0 3.0 0.00 0.00 0.00 70 1002.7
20260509073116 48 69 1.0 5.0 0.00 0.00 0.00 69 1002.7
20260509073020 48 69 1.0 5.0 0.00 0.00 0.00 68 1002.8
20260509072907 48 69 1.0 5.0 0.00 0.00 0.00 68 1002.7
20260509072812 48 69 1.0 5.0 0.00 0.00 0.00 68 1002.7
20260509072717 48 69 1.0 6.0 0.00 0.00 0.00 68 1002.8
20260509072641 47 69 2.0 6.0 0.00 0.00 0.00 68 1002.8
20260509072429 47 69 3.0 6.0 0.00 0.00 0.00 67 1002.7
20260509072313 47 69 4.0 6.0 0.00 0.00 0.00 68 1002.7
20260509072237 47 70 4.0 6.0 0.00 0.00 0.00 70 1002.7
20260509072144 47 70 4.0 6.0 0.00 0.00 0.00 71 1002.8
20260509072028 47 71 5.0 6.0 0.00 0.00 0.00 72 1002.7
20260509071931 47 71 5.0 6.0 0.00 0.00 0.00 72 1002.7
20260509071808 47 71 5.0 6.0 0.00 0.00 0.00 71 1002.7
20260509071733 47 71 4.0 5.0 0.00 0.00 0.00 71 1002.7
20260509071616 47 70 3.0 4.0 0.00 0.00 0.00 71 1002.7
20260509071521 47 50 3.0 4.0 0.00 0.00 0.00 71 1002.7
20260509071429 47 48 2.0 4.0 0.00 0.00 0.00 71 1002.7
20260509071306 47 277 1.0 2.0 0.00 0.00 0.00 67 1002.8
20260509071231 47 275 1.0 2.0 0.00 0.00 0.00 66 1002.7
20260509071107 47 275 1.0 2.0 0.00 0.00 0.00 67 1002.8
20260509071011 47 275 1.0 2.0 0.00 0.00 0.00 68 1002.8
20260509070936 47 275 1.0 2.0 0.00 0.00 0.00 69 1002.8
20260509070820 47 275 1.0 2.0 0.00 0.00 0.00 69 1002.8
20260509070728 47 275 1.0 2.0 0.00 0.00 0.00 69 1002.8
20260509070606 47 275 1.0 2.0 0.00 0.00 0.00 68 1002.7
20260509070511 47 275 1.0 2.0 0.00 0.00 0.00 68 1002.7
20260509070415 47 275 1.0 2.0 0.00 0.00 0.00 68 1002.8
20260509070320 47 275 0.0 2.0 0.00 0.00 0.00 67 1002.7
20260509070208 47 275 0.0 2.0 0.00 0.00 0.00 69 1002.7
20260509070132 47 275 1.0 2.0 0.00 0.00 0.00 70 1002.8
20260509070010 47 275 1.0 2.0 0.00 0.00 0.00 71 1002.8
20260509065912 47 275 1.0 2.0 0.00 0.00 0.00 71 1002.8
20260509065816 47 275 1.0 2.0 0.00 0.00 0.00 71 1002.7
20260509065720 47 275 1.0 2.0 0.00 0.00 0.00 71 1002.8
20260509065608 47 275 1.0 2.0 0.00 0.00 0.00 71 1002.8
20260509065511 47 275 1.0 2.0 0.00 0.00 0.00 71 1002.8
20260509065416 47 275 1.0 2.0 0.00 0.00 0.00 72 1002.8
20260509065320 47 275 1.0 2.0 0.00 0.00 0.00 73 1002.8
20260509065224 47 275 1.0 2.0 0.00 0.00 0.00 73 1002.7
20260509065109 46 275 0.0 2.0 0.00 0.00 0.00 71 1002.8
20260509065016 46 275 0.0 2.0 0.00 0.00 0.00 71 1002.8
20260509064920 46 275 0.0 2.0 0.00 0.00 0.00 71 1002.8
20260509064824 46 275 0.0 2.0 0.00 0.00 0.00 72 1002.8
20260509064709 46 275 0.0 2.0 0.00 0.00 0.00 71 1002.8
20260509064614 46 275 1.0 2.0 0.00 0.00 0.00 70 1002.7
20260509064518 46 275 1.0 2.0 0.00 0.00 0.00 71 1002.8
20260509064442 46 275 1.0 2.0 0.00 0.00 0.00 71 1002.8
20260509064329 46 275 1.0 2.0 0.00 0.00 0.00 71 1002.7
20260509064213 46 275 1.0 2.0 0.00 0.00 0.00 71 1002.7
20260509064137 46 275 1.0 2.0 0.00 0.00 0.00 71 1002.7
20260509064020 46 275 1.0 2.0 0.00 0.00 0.00 72 1002.6
20260509063945 46 275 1.0 2.0 0.00 0.00 0.00 71 1002.5
20260509063808 46 275 0.0 3.0 0.00 0.00 0.00 70 1002.5
20260509063712 46 275 0.0 3.0 0.00 0.00 0.00 70 1002.4
20260509063640 46 275 0.0 3.0 0.00 0.00 0.00 70 1002.5
20260509063524 46 275 0.0 3.0 0.00 0.00 0.00 70 1002.5
20260509063409 46 275 0.0 3.0 0.00 0.00 0.00 70 1002.7
20260509063313 46 275 0.0 3.0 0.00 0.00 0.00 70 1002.5
20260509063217 46 275 1.0 3.0 0.00 0.00 0.00 70 1002.5
20260509063122 46 275 2.0 3.0 0.00 0.00 0.00 70 1002.4
20260509063010 46 275 2.0 3.0 0.00 0.00 0.00 70 1002.5
20260509062915 46 276 2.0 2.0 0.00 0.00 0.00 69 1002.4
20260509062819 46 276 1.0 2.0 0.00 0.00 0.00 68 1002.6
20260509062724 46 276 1.0 2.0 0.00 0.00 0.00 68 1002.7
20260509062609 46 276 1.0 2.0 0.00 0.00 0.00 69 1002.7
20260509062512 46 276 1.0 2.0 0.00 0.00 0.00 69 1002.7
20260509062441 46 276 1.0 2.0 0.00 0.00 0.00 69 1002.7
20260509062344 46 276 1.0 2.0 0.00 0.00 0.00 68 1002.7
20260509062228 46 276 1.0 2.0 0.00 0.00 0.00 67 1002.7
20260509062130 46 276 1.0 2.0 0.00 0.00 0.00 67 1002.7
20260509062007 46 276 1.0 2.0 0.00 0.00 0.00 65 1002.7
20260509061911 46 276 1.0 2.0 0.00 0.00 0.00 65 1002.6
20260509061815 46 276 1.0 2.0 0.00 0.00 0.00 65 1002.6
20260509061739 46 276 1.0 2.0 0.00 0.00 0.00 63 1002.6
20260509061607 46 276 0.0 2.0 0.00 0.00 0.00 61 1002.6
20260509061511 46 276 0.0 1.0 0.00 0.00 0.00 61 1002.7
20260509061437 46 276 0.0 1.0 0.00 0.00 0.00 61 1002.8
20260509061320 46 276 0.0 1.0 0.00 0.00 0.00 61 1002.8
20260509061225 46 276 0.0 1.0 0.00 0.00 0.00 61 1002.8
20260509061129 46 276 0.0 1.0 0.00 0.00 0.00 61 1002.8
20260509061017 46 276 0.0 2.0 0.00 0.00 0.00 61 1002.7
20260509060922 46 276 0.0 2.0 0.00 0.00 0.00 61 1002.7
20260509060826 46 276 0.0 2.0 0.00 0.00 0.00 61 1002.7
20260509060731 46 276 0.0 2.0 0.00 0.00 0.00 61 1002.7
20260509060633 46 276 0.0 2.0 0.00 0.00 0.00 61 1002.7
20260509060516 46 276 0.0 2.0 0.00 0.00 0.00 61 1002.6
20260509060421 46 276 1.0 2.0 0.00 0.00 0.00 61 1002.7
20260509060308 46 276 1.0 2.0 0.00 0.00 0.00 61 1002.7
20260509060233 46 276 1.0 2.0 0.00 0.00 0.00 61 1002.7
20260509060110 46 276 1.0 2.0 0.00 0.00 0.00 61 1002.8
20260509060015 46 276 1.0 2.0 0.00 0.00 0.00 62 1002.7
20260509055920 46 276 1.0 2.0 0.00 0.00 0.00 62 1002.7
20260509055823 46 276 1.0 2.0 0.00 0.00 0.00 62 1002.7
20260509055731 46 276 1.0 2.0 0.00 0.00 0.00 62 1002.7
20260509055615 46 276 1.0 2.0 0.00 0.00 0.00 62 1002.7
20260509055539 46 276 1.0 2.0 0.00 0.00 0.00 61 1002.7
20260509055422 46 276 2.0 2.0 0.00 0.00 0.00 60 1002.7
20260509055325 46 276 2.0 2.0 0.00 0.00 0.00 60 1002.7
20260509055209 46 277 2.0 2.0 0.00 0.00 0.00 62 1002.8
20260509055113 46 277 1.0 2.0 0.00 0.00 0.00 62 1002.8
20260509055021 46 277 1.0 2.0 0.00 0.00 0.00 63 1002.8
20260509054926 46 321 0.0 1.0 0.00 0.00 0.00 64 1002.8
20260509054810 46 321 0.0 1.0 0.00 0.00 0.00 65 1002.8
20260509054714 46 321 0.0 1.0 0.00 0.00 0.00 64 1003.0
20260509054617 46 321 0.0 1.0 0.00 0.00 0.00 64 1003.0
20260509054521 46 321 0.0 1.0 0.00 0.00 0.00 65 1003.1
20260509054409 46 321 0.0 1.0 0.00 0.00 0.00 64 1003.1
20260509054313 46 321 0.0 1.0 0.00 0.00 0.00 64 1003.1
20260509054217 46 321 0.0 1.0 0.00 0.00 0.00 65 1003.1
20260509054142 46 321 0.0 1.0 0.00 0.00 0.00 65 1003.0
20260509054006 46 321 0.0 1.0 0.00 0.00 0.00 65 1003.0
20260509053911 46 321 0.0 1.0 0.00 0.00 0.00 64 1003.1
20260509053839 46 321 0.0 1.0 0.00 0.00 0.00 64 1003.0
20260509053742 46 321 0.0 1.0 0.00 0.00 0.00 64 1003.1
20260509053624 46 321 0.0 1.0 0.00 0.00 0.00 64 1003.1
20260509053528 46 321 0.0 1.0 0.00 0.00 0.00 64 1003.1
20260509053451 46 321 0.0 0.0 0.00 0.00 0.00 64 1003.1
20260509053307 46 321 0.0 0.0 0.00 0.00 0.00 63 1003.1
20260509053212 46 321 0.0 0.0 0.00 0.00 0.00 63 1003.1
20260509053138 47 321 0.0 0.0 0.00 0.00 0.00 62 1003.1
20260509053024 47 321 0.0 0.0 0.00 0.00 0.00 62 1003.1
20260509052928 47 321 0.0 0.0 0.00 0.00 0.00 62 1003.1
20260509052853 47 321 0.0 0.0 0.00 0.00 0.00 62 1003.1
20260509052709 47 321 0.0 0.0 0.00 0.00 0.00 61 1003.1
20260509052635 47 321 0.0 0.0 0.00 0.00 0.00 60 1003.1
20260509052518 47 321 0.0 0.0 0.00 0.00 0.00 60 1003.1
20260509052407 47 321 0.0 0.0 0.00 0.00 0.00 60 1003.1
20260509052331 47 321 0.0 0.0 0.00 0.00 0.00 60 1003.2
20260509052206 47 321 0.0 0.0 0.00 0.00 0.00 59 1003.2
20260509052111 47 321 0.0 0.0 0.00 0.00 0.00 58 1003.2
20260509052035 47 321 0.0 0.0 0.00 0.00 0.00 58 1003.3
20260509051919 47 321 0.0 1.0 0.00 0.00 0.00 58 1003.2
20260509051824 47 321 0.0 1.0 0.00 0.00 0.00 57 1003.2
20260509051733 48 321 0.0 1.0 0.00 0.00 0.00 58 1003.1
20260509051636 48 321 0.0 1.0 0.00 0.00 0.00 57 1003.1
20260509051519 48 321 0.0 2.0 0.00 0.00 0.00 57 1003.2
20260509051443 48 321 0.0 2.0 0.00 0.00 0.00 58 1003.1
20260509051326 48 321 0.0 2.0 0.00 0.00 0.00 57 1003.2
20260509051231 48 321 0.0 2.0 0.00 0.00 0.00 57 1003.2
20260509051107 48 321 1.0 2.0 0.00 0.00 0.00 56 1003.1
20260509051031 48 321 1.0 2.0 0.00 0.00 0.00 54 1003.2
20260509050919 48 321 1.0 2.0 0.00 0.00 0.00 54 1003.1
20260509050823 48 321 1.0 2.0 0.00 0.00 0.00 54 1003.2
20260509050725 48 321 1.0 2.0 0.00 0.00 0.00 54 1003.2
20260509050629 49 321 1.0 2.0 0.00 0.00 0.00 54 1003.1
20260509050512 49 321 1.0 2.0 0.00 0.00 0.00 54 1003.2
20260509050416 49 321 0.0 2.0 0.00 0.00 0.00 54 1003.2
20260509050319 49 321 0.0 0.0 0.00 0.00 0.00 54 1003.2
20260509050228 49 321 0.0 1.0 0.00 0.00 0.00 54 1003.4
20260509050151 49 321 0.0 1.0 0.00 0.00 0.00 54 1003.4
20260509050008 49 321 0.0 1.0 0.00 0.00 0.00 53 1003.5
20260509045912 50 321 0.0 1.0 0.00 0.00 0.00 53 1003.4
20260509045817 50 321 0.0 1.0 0.00 0.00 0.00 53 1003.4
20260509045720 50 321 0.0 1.0 0.00 0.00 0.00 52 1003.4
20260509045609 50 321 0.0 2.0 0.00 0.00 0.00 53 1003.4
20260509045534 50 321 0.0 2.0 0.00 0.00 0.00 53 1003.4
20260509045417 50 321 0.0 2.0 0.00 0.00 0.00 54 1003.4
20260509045322 51 321 0.0 2.0 0.00 0.00 0.00 54 1003.4
20260509045227 51 321 1.0 2.0 0.00 0.00 0.00 54 1003.4
20260509045152 51 321 1.0 2.0 0.00 0.00 0.00 54 1003.4
20260509045009 51 321 1.0 2.0 0.00 0.00 0.00 53 1003.4
20260509044918 51 321 1.0 2.0 0.00 0.00 0.00 52 1003.5
20260509044821 51 321 1.0 2.0 0.00 0.00 0.00 51 1003.5
20260509044706 52 321 0.0 2.0 0.00 0.00 0.00 52 1003.5
20260509044610 52 321 0.0 2.0 0.00 0.00 0.00 51 1003.4
20260509044516 52 321 0.0 2.0 0.00 0.00 0.00 50 1003.4
20260509044420 52 321 0.0 2.0 0.00 0.00 0.00 49 1003.4
20260509044308 52 321 1.0 2.0 0.00 0.00 0.00 49 1003.5
20260509044211 53 321 1.0 2.0 0.00 0.00 0.00 50 1003.4
20260509044116 53 321 1.0 3.0 0.00 0.00 0.00 50 1003.5
20260509044040 53 321 2.0 3.0 0.00 0.00 0.00 49 1003.5
20260509043923 53 321 2.0 3.0 0.00 0.00 0.00 48 1003.4
20260509043807 53 321 2.0 3.0 0.00 0.00 0.00 48 1003.5
20260509043737 53 321 2.0 3.0 0.00 0.00 0.00 47 1003.6
20260509043642 53 321 2.0 3.0 0.00 0.00 0.00 46 1003.5
20260509043525 53 321 2.0 5.0 0.00 0.00 0.00 47 1003.5
20260509043428 54 321 2.0 5.0 0.00 0.00 0.00 47 1003.5
20260509043311 54 321 2.0 5.0 0.00 0.00 0.00 47 1003.6
20260509043216 54 321 2.0 5.0 0.00 0.00 0.00 46 1003.5
20260509043140 54 321 2.0 5.0 0.00 0.00 0.00 47 1003.5
20260509043008 54 321 2.0 5.0 0.00 0.00 0.00 45 1003.6
20260509042931 54 321 2.0 5.0 0.00 0.00 0.00 45 1003.5
20260509042815 54 321 3.0 5.0 0.00 0.00 0.00 44 1003.5
20260509042740 54 307 3.0 5.0 0.00 0.00 0.00 44 1003.6
20260509042623 54 322 3.0 4.0 0.00 0.00 0.00 44 1003.6
20260509042507 55 321 3.0 4.0 0.00 0.00 0.00 43 1003.6
20260509042412 55 321 3.0 5.0 0.00 0.00 0.00 43 1003.6
20260509042320 55 315 3.0 5.0 0.00 0.00 0.00 44 1003.6
20260509042245 55 316 2.0 5.0 0.00 0.00 0.00 43 1003.6
20260509042110 55 305 2.0 5.0 0.00 0.00 0.00 43 1003.5
20260509042013 55 301 3.0 5.0 0.00 0.00 0.00 43 1003.5
20260509041917 56 302 2.0 5.0 0.00 0.00 0.00 44 1003.5
20260509041839 56 302 2.0 6.0 0.00 0.00 0.00 42 1003.5
20260509041722 56 302 2.0 6.0 0.00 0.00 0.00 42 1003.7
20260509041610 56 302 3.0 6.0 0.00 0.00 0.00 42 1003.7
20260509041514 56 337 3.0 6.0 0.00 0.00 0.00 41 1003.8
20260509041420 56 333 3.0 6.0 0.00 0.00 0.00 42 1003.8
20260509041323 56 311 3.0 6.0 0.00 0.00 0.00 42 1003.7
20260509041207 56 326 3.0 8.0 0.00 0.00 0.00 41 1003.8
20260509041112 57 314 3.0 8.0 0.00 0.00 0.00 41 1003.8
20260509041022 57 298 3.0 8.0 0.00 0.00 0.00 42 1003.9
20260509040906 57 330 3.0 8.0 0.00 0.00 0.00 40 1003.9
20260509040830 57 315 3.0 8.0 0.00 0.00 0.00 42 1003.9
20260509040713 57 330 3.0 8.0 0.00 0.00 0.00 39 1003.9
20260509040637 57 342 4.0 8.0 0.00 0.00 0.00 40 1003.9
20260509040521 57 348 4.0 8.0 0.00 0.00 0.00 39 1003.9
20260509040409 57 334 3.0 8.0 0.00 0.00 0.00 40 1003.9
20260509040312 57 345 3.0 8.0 0.00 0.00 0.00 40 1004.0
20260509040217 57 327 4.0 8.0 0.00 0.00 0.00 39 1004.0
20260509040121 57 348 4.0 8.0 0.00 0.00 0.00 39 1003.9
20260509040024 57 344 4.0 8.0 0.00 0.00 0.00 39 1003.9
20260509035909 57 355 4.0 10.0 0.00 0.00 0.00 40 1004.0
20260509035818 57 342 4.0 10.0 0.00 0.00 0.00 39 1003.9
20260509035723 57 338 5.0 10.0 0.00 0.00 0.00 39 1003.9
20260509035628 58 355 5.0 10.0 0.00 0.00 0.00 39 1003.9
20260509035513 58 5 4.0 10.0 0.00 0.00 0.00 39 1003.8
20260509035420 58 346 5.0 10.0 0.00 0.00 0.00 38 1003.8
20260509035324 58 341 5.0 10.0 0.00 0.00 0.00 38 1003.8
20260509035230 58 15 6.0 10.0 0.00 0.00 0.00 38 1003.8
20260509035118 58 350 5.0 10.0 0.00 0.00 0.00 38 1003.9
20260509035023 58 346 4.0 10.0 0.00 0.00 0.00 38 1003.9
20260509034929 58 360 5.0 13.0 0.00 0.00 0.00 39 1003.8
20260509034813 58 302 5.0 13.0 0.00 0.00 0.00 38 1003.8
20260509034739 58 344 5.0 13.0 0.00 0.00 0.00 38 1003.8
20260509034642 58 340 4.0 13.0 0.00 0.00 0.00 38 1003.7
20260509034525 58 346 4.0 13.0 0.00 0.00 0.00 38 1003.8
20260509034415 58 320 5.0 13.0 0.00 0.00 0.00 38 1003.8
20260509034322 58 349 6.0 13.0 0.00 0.00 0.00 38 1003.8
20260509034245 58 329 7.0 13.0 0.00 0.00 0.00 38 1003.8
20260509034108 58 338 6.0 13.0 0.00 0.00 0.00 38 1003.7
20260509034032 58 341 6.0 11.0 0.00 0.00 0.00 38 1003.7
20260509033915 58 340 6.0 11.0 0.00 0.00 0.00 38 1003.7
20260509033839 58 339 5.0 11.0 0.00 0.00 0.00 38 1003.7
20260509033725 58 334 5.0 11.0 0.00 0.00 0.00 38 1003.7
20260509033609 58 331 5.0 11.0 0.00 0.00 0.00 38 1003.7
20260509033513 59 40 5.0 9.0 0.00 0.00 0.00 39 1003.7
20260509033418 58 12 5.0 9.0 0.00 0.00 0.00 38 1003.7
20260509033321 59 360 5.0 9.0 0.00 0.00 0.00 37 1003.6
20260509033225 59 340 5.0 9.0 0.00 0.00 0.00 38 1003.7
20260509033112 59 334 5.0 9.0 0.00 0.00 0.00 37 1003.7
20260509033036 59 355 5.0 9.0 0.00 0.00 0.00 38 1003.7
20260509032939 59 360 6.0 9.0 0.00 0.00 0.00 38 1003.6
20260509032822 59 360 5.0 9.0 0.00 0.00 0.00 38 1003.6
20260509032746 59 341 4.0 9.0 0.00 0.00 0.00 37 1003.6
20260509032608 59 355 5.0 9.0 0.00 0.00 0.00 37 1003.6
20260509032511 59 329 6.0 9.0 0.00 0.00 0.00 37 1003.6
20260509032415 59 347 6.0 9.0 0.00 0.00 0.00 37 1003.6
20260509032323 59 323 6.0 10.0 0.00 0.00 0.00 37 1003.6
20260509032227 59 360 6.0 10.0 0.00 0.00 0.00 37 1003.6
20260509032151 59 333 5.0 10.0 0.00 0.00 0.00 38 1003.6
20260509032006 59 341 5.0 10.0 0.00 0.00 0.00 37 1003.6
20260509031908 59 340 6.0 10.0 0.00 0.00 0.00 38 1003.6
20260509031832 59 336 6.0 10.0 0.00 0.00 0.00 37 1003.6
20260509031714 59 350 6.0 10.0 0.00 0.00 0.00 37 1003.7
20260509031623 59 343 6.0 10.0 0.00 0.00 0.00 38 1003.6
20260509031526 59 319 6.0 10.0 0.00 0.00 0.00 38 1003.6
20260509031409 60 347 6.0 10.0 0.00 0.00 0.00 37 1003.6
20260509031314 60 330 6.0 10.0 0.00 0.00 0.00 37 1003.6
20260509031218 60 342 6.0 10.0 0.00 0.00 0.00 38 1003.6
20260509031122 60 319 4.0 12.0 0.00 0.00 0.00 38 1003.5
20260509031029 60 9 6.0 12.0 0.00 0.00 0.00 37 1003.5
20260509030910 60 360 7.0 12.0 0.00 0.00 0.00 36 1003.6
20260509030812 60 5 6.0 13.0 0.00 0.00 0.00 37 1003.5
20260509030715 60 18 5.0 13.0 0.00 0.00 0.00 37 1003.5
20260509030616 60 355 5.0 13.0 0.00 0.00 0.00 36 1003.5
20260509030519 60 355 6.0 13.0 0.00 0.00 0.00 37 1003.5
20260509030423 60 324 7.0 13.0 0.00 0.00 0.00 36 1003.5
20260509030349 60 5 7.0 13.0 0.00 0.00 0.00 36 1003.5
20260509030253 60 32 8.0 13.0 0.00 0.00 0.00 36 1003.5
20260509030107 60 327 7.0 13.0 0.00 0.00 0.00 36 1003.4
20260509030013 60 355 6.0 14.0 0.00 0.00 0.00 36 1003.5
20260509025914 60 343 6.0 14.0 0.00 0.00 0.00 36 1003.5
20260509025818 60 12 6.0 14.0 0.00 0.00 0.00 37 1003.5
20260509025722 60 345 6.0 14.0 0.00 0.00 0.00 36 1003.4
20260509025628 61 9 8.0 14.0 0.00 0.00 0.00 36 1003.5
20260509025531 61 25 8.0 14.0 0.00 0.00 0.00 36 1003.5
20260509025409 61 360 8.0 14.0 0.00 0.00 0.00 36 1003.5
20260509025310 61 355 8.0 14.0 0.00 0.00 0.00 36 1003.4
20260509025214 61 346 6.0 15.0 0.00 0.00 0.00 36 1003.4
20260509025119 61 323 5.0 15.0 0.00 0.00 0.00 36 1003.4
20260509025007 61 51 7.0 15.0 0.00 0.00 0.00 36 1003.4
20260509024909 61 360 8.0 15.0 0.00 0.00 0.00 36 1003.5
20260509024832 61 321 9.0 16.0 0.00 0.00 0.00 36 1003.4
20260509024707 61 18 9.0 16.0 0.00 0.00 0.00 36 1003.4
20260509024612 61 355 9.0 16.0 0.00 0.00 0.00 36 1003.4
20260509024516 61 360 9.0 16.0 0.00 0.00 0.00 36 1003.3
20260509024440 61 311 9.0 16.0 0.00 0.00 0.00 36 1003.3
20260509024328 61 323 8.0 16.0 0.00 0.00 0.00 36 1003.3
20260509024252 61 11 7.0 16.0 0.00 0.00 0.00 36 1003.3
20260509024108 61 331 9.0 16.0 0.00 0.00 0.00 36 1003.3
20260509024013 61 355 9.0 16.0 0.00 0.00 0.00 36 1003.3
20260509023917 61 335 9.0 16.0 0.00 0.00 0.00 36 1003.3
20260509023819 61 339 9.0 16.0 0.00 0.00 0.00 36 1003.3
20260509023708 62 15 9.0 15.0 0.00 0.00 0.00 37 1003.2
20260509023631 62 317 9.0 15.0 0.00 0.00 0.00 36 1003.3
20260509023515 62 360 9.0 15.0 0.00 0.00 0.00 37 1003.3
20260509023418 62 335 8.0 16.0 0.00 0.00 0.00 37 1003.2
20260509023323 62 348 8.0 16.0 0.00 0.00 0.00 36 1003.3
20260509023207 62 330 7.0 16.0 0.00 0.00 0.00 36 1003.2
20260509023117 62 336 8.0 16.0 0.00 0.00 0.00 37 1003.2
20260509023020 62 355 7.0 16.0 0.00 0.00 0.00 36 1003.2
20260509022925 62 344 6.0 21.0 0.00 0.00 0.00 36 1003.2
20260509022849 62 31 5.0 21.0 0.00 0.00 0.00 36 1003.1
20260509022706 63 347 10.0 21.0 0.00 0.00 0.00 35 1003.1
20260509022630 63 325 11.0 21.0 0.00 0.00 0.00 35 1003.0
20260509022508 63 26 11.0 21.0 0.00 0.00 0.00 35 1003.2
20260509022417 63 344 12.0 21.0 0.00 0.00 0.00 35 1003.1
20260509022321 63 349 12.0 21.0 0.00 0.00 0.00 35 1003.1
20260509022226 63 349 14.0 21.0 0.00 0.00 0.00 35 1003.1
20260509022129 63 355 15.0 21.0 0.00 0.00 0.00 35 1003.1
20260509022054 63 347 14.0 21.0 0.00 0.00 0.00 35 1003.2
20260509021907 63 11 15.0 21.0 0.00 0.00 0.00 35 1003.1
20260509021816 63 350 15.0 21.0 0.00 0.00 0.00 35 1003.0
20260509021721 63 360 14.0 21.0 0.00 0.00 0.00 36 1003.0
20260509021626 63 351 15.0 21.0 0.00 0.00 0.00 36 1003.0
20260509021529 63 14 12.0 21.0 0.00 0.00 0.00 36 1003.0
20260509021406 63 5 10.0 21.0 0.00 0.00 0.00 36 1003.0
20260509021332 63 41 11.0 23.0 0.00 0.00 0.00 36 1003.0
20260509021213 63 329 11.0 23.0 0.00 0.00 0.00 36 1003.0
20260509021122 64 355 12.0 23.0 0.00 0.00 0.00 36 1002.8
20260509021027 64 336 12.0 23.0 0.00 0.00 0.00 36 1002.8
20260509020930 64 355 13.0 23.0 0.00 0.00 0.00 36 1002.9
20260509020831 64 13 13.0 23.0 0.00 0.00 0.00 36 1002.8
20260509020707 64 20 12.0 23.0 0.00 0.00 0.00 36 1002.7
20260509020611 64 5 13.0 23.0 0.00 0.00 0.00 35 1002.7
20260509020536 64 360 15.0 23.0 0.00 0.00 0.00 35 1002.7
20260509020440 64 340 14.0 20.0 0.00 0.00 0.00 35 1002.6
20260509020306 64 5 13.0 20.0 0.00 0.00 0.00 35 1002.7
20260509020210 64 5 11.0 19.0 0.00 0.00 0.00 35 1002.6
20260509020114 64 17 12.0 19.0 0.00 0.00 0.00 35 1002.5
20260509020017 64 355 12.0 19.0 0.00 0.00 0.00 35 1002.6
20260509015941 64 5 11.0 18.0 0.00 0.00 0.00 35 1002.5
20260509015845 64 347 9.0 18.0 0.00 0.00 0.00 35 1002.5
20260509015713 64 360 10.0 19.0 0.00 0.00 0.00 35 1002.5
20260509015618 64 360 12.0 19.0 0.00 0.00 0.00 35 1002.4
20260509015522 64 360 12.0 19.0 0.00 0.00 0.00 35 1002.5
20260509015427 64 345 11.0 19.0 0.00 0.00 0.00 35 1002.4
20260509015309 64 360 10.0 19.0 0.00 0.00 0.00 35 1002.4
20260509015214 64 338 9.0 19.0 0.00 0.00 0.00 35 1002.3
20260509015117 64 17 10.0 22.0 0.00 0.00 0.00 34 1002.3
20260509015024 64 5 10.0 22.0 0.00 0.00 0.00 34 1002.3
20260509014909 64 29 10.0 22.0 0.00 0.00 0.00 35 1002.3
20260509014834 64 15 11.0 22.0 0.00 0.00 0.00 35 1002.2
20260509014710 64 333 11.0 22.0 0.00 0.00 0.00 35 1002.2
20260509014635 64 21 10.0 22.0 0.00 0.00 0.00 34 1002.2
20260509014519 64 355 10.0 22.0 0.00 0.00 0.00 33 1002.2
20260509014407 64 15 13.0 22.0 0.00 0.00 0.00 33 1002.2
20260509014331 64 338 13.0 22.0 0.00 0.00 0.00 33 1002.2
20260509014234 64 5 12.0 17.0 0.00 0.00 0.00 33 1002.2
20260509014109 64 350 10.0 16.0 0.00 0.00 0.00 33 1002.2
20260509014034 64 340 6.0 13.0 0.00 0.00 0.00 33 1002.0
20260509013916 64 326 5.0 13.0 0.00 0.00 0.00 33 1002.1
20260509013820 64 303 4.0 13.0 0.00 0.00 0.00 33 1002.0
20260509013745 64 319 5.0 13.0 0.00 0.00 0.00 33 1002.0
20260509013613 65 344 4.0 13.0 0.00 0.00 0.00 33 1002.0
20260509013516 65 338 4.0 13.0 0.00 0.00 0.00 33 1002.0
20260509013440 65 330 5.0 13.0 0.00 0.00 0.00 32 1001.9
20260509013344 65 334 6.0 13.0 0.00 0.00 0.00 32 1002.0
20260509013226 65 350 6.0 13.0 0.00 0.00 0.00 32 1002.0
20260509013149 65 338 5.0 13.0 0.00 0.00 0.00 33 1001.9
20260509013006 65 336 6.0 13.0 0.00 0.00 0.00 32 1002.0
20260509012911 65 341 5.0 13.0 0.00 0.00 0.00 33 1001.9
20260509012819 65 5 5.0 14.0 0.00 0.00 0.00 32 1001.9
20260509012743 65 10 5.0 14.0 0.00 0.00 0.00 33 1002.0
20260509012625 65 355 6.0 14.0 0.00 0.00 0.00 32 1001.9
20260509012528 65 13 7.0 14.0 0.00 0.00 0.00 31 1001.9
20260509012406 65 329 8.0 14.0 0.00 0.00 0.00 31 1001.9
20260509012331 65 355 7.0 14.0 0.00 0.00 0.00 32 1002.0
20260509012234 65 338 7.0 14.0 0.00 0.00 0.00 32 1001.9
20260509012122 65 325 7.0 14.0 0.00 0.00 0.00 31 1001.9
20260509012007 65 329 7.0 13.0 0.00 0.00 0.00 31 1001.9
20260509011912 65 333 8.0 13.0 0.00 0.00 0.00 31 1001.9
20260509011817 65 340 8.0 13.0 0.00 0.00 0.00 31 1001.8
20260509011740 66 319 7.0 13.0 0.00 0.00 0.00 32 1001.8
20260509011624 66 348 5.0 13.0 0.00 0.00 0.00 31 1001.9
20260509011513 66 342 3.0 13.0 0.00 0.00 0.00 31 1001.8
20260509011418 66 321 4.0 13.0 0.00 0.00 0.00 32 1001.8
20260509011342 66 360 6.0 13.0 0.00 0.00 0.00 31 1001.8
20260509011225 66 337 7.0 13.0 0.00 0.00 0.00 31 1001.8
20260509011130 66 355 5.0 12.0 0.00 0.00 0.00 32 1001.8
20260509011033 66 15 5.0 12.0 0.00 0.00 0.00 31 1001.8
20260509010936 66 355 5.0 12.0 0.00 0.00 0.00 32 1001.8
20260509010839 66 286 5.0 12.0 0.00 0.00 0.00 30 1001.8
20260509010722 66 34 5.0 12.0 0.00 0.00 0.00 30 1001.8
20260509010651 66 350 4.0 12.0 0.00 0.00 0.00 30 1001.7
20260509010508 67 310 7.0 15.0 0.00 0.00 0.00 31 1001.8
20260509010431 67 323 7.0 15.0 0.00 0.00 0.00 31 1001.8
20260509010308 67 340 6.0 15.0 0.00 0.00 0.00 30 1001.8
20260509010213 67 338 5.0 15.0 0.00 0.00 0.00 30 1001.7
20260509010137 67 340 6.0 15.0 0.00 0.00 0.00 30 1001.7
20260509010021 67 5 7.0 15.0 0.00 0.00 0.00 30 1001.7
20260509005910 67 355 7.0 16.0 0.00 0.00 0.00 30 1001.7
20260509005834 67 5 7.0 16.0 0.00 0.00 0.00 30 1001.7
20260509005709 67 5 8.0 16.0 0.00 0.00 0.00 30 1001.6
20260509005614 67 333 8.0 16.0 0.00 0.00 0.00 30 1001.7
20260509005538 67 38 6.0 16.0 0.00 0.00 0.00 30 1001.7
20260509005442 67 327 4.0 16.0 0.00 0.00 0.00 32 1001.7
20260509005309 67 333 5.0 16.0 0.00 0.00 0.00 30 1001.7
20260509005213 67 315 6.0 16.0 0.00 0.00 0.00 29 1001.7
20260509005139 67 9 8.0 16.0 0.00 0.00 0.00 29 1001.7
20260509005041 67 333 7.0 16.0 0.00 0.00 0.00 29 1001.6
20260509004924 67 344 6.0 13.0 0.00 0.00 0.00 30 1001.7
20260509004827 68 328 9.0 13.0 0.00 0.00 0.00 29 1001.6
20260509004711 68 348 9.0 15.0 0.00 0.00 0.00 28 1001.6
20260509004614 68 350 8.0 15.0 0.00 0.00 0.00 29 1001.7
20260509004522 68 326 8.0 16.0 0.00 0.00 0.00 29 1001.7
20260509004425 68 355 8.0 16.0 0.00 0.00 0.00 28 1001.6
20260509004330 68 360 7.0 16.0 0.00 0.00 0.00 29 1001.7
20260509004206 68 328 5.0 16.0 0.00 0.00 0.00 29 1001.6
20260509004111 68 350 7.0 16.0 0.00 0.00 0.00 29 1001.6
20260509004015 68 346 8.0 16.0 0.00 0.00 0.00 29 1001.6
20260509003923 68 337 9.0 16.0 0.00 0.00 0.00 28 1001.6
20260509003828 68 5 10.0 16.0 0.00 0.00 0.00 29 1001.6
20260509003731 68 309 10.0 16.0 0.00 0.00 0.00 30 1001.6
20260509003608 68 284 9.0 16.0 0.00 0.00 0.00 29 1001.5
20260509003513 68 324 9.0 16.0 0.00 0.00 0.00 29 1001.6
20260509003438 68 323 8.0 20.0 0.00 0.00 0.00 30 1001.5
20260509003341 68 329 6.0 20.0 0.00 0.00 0.00 30 1001.5
20260509003228 68 13 8.0 20.0 0.00 0.00 0.00 30 1001.5
20260509003106 68 360 8.0 20.0 0.00 0.00 0.00 30 1001.6
20260509003010 68 325 7.0 20.0 0.00 0.00 0.00 30 1001.6
20260509002914 68 326 9.0 20.0 0.00 0.00 0.00 30 1001.6
20260509002819 68 331 10.0 20.0 0.00 0.00 0.00 29 1001.5
20260509002723 68 305 10.0 20.0 0.00 0.00 0.00 29 1001.5
20260509002632 68 321 11.0 20.0 0.00 0.00 0.00 29 1001.4
20260509002508 68 345 11.0 18.0 0.00 0.00 0.00 29 1001.6
20260509002413 68 308 12.0 18.0 0.00 0.00 0.00 28 1001.5
20260509002317 68 311 12.0 18.0 0.00 0.00 0.00 30 1001.5
20260509002221 68 322 9.0 16.0 0.00 0.00 0.00 29 1001.6
20260509002125 68 337 6.0 12.0 0.00 0.00 0.00 32 1001.7
20260509002033 69 360 4.0 11.0 0.00 0.00 0.00 31 1001.6
20260509001917 68 316 4.0 12.0 0.00 0.00 0.00 30 1001.5
20260509001821 69 360 4.0 12.0 0.00 0.00 0.00 31 1001.7
20260509001725 69 338 5.0 13.0 0.00 0.00 0.00 30 1001.5
20260509001630 69 333 4.0 13.0 0.00 0.00 0.00 32 1001.6
20260509001514 69 321 4.0 16.0 0.00 0.00 0.00 32 1001.6
20260509001419 68 298 5.0 16.0 0.00 0.00 0.00 30 1001.7
20260509001307 68 350 7.0 16.0 0.00 0.00 0.00 31 1001.6
20260509001231 68 355 7.0 16.0 0.00 0.00 0.00 31 1001.7
20260509001108 68 329 8.0 16.0 0.00 0.00 0.00 30 1001.7
20260509001013 68 320 7.0 16.0 0.00 0.00 0.00 32 1001.6
20260509000937 68 319 7.0 16.0 0.00 0.00 0.00 32 1001.6
20260509000820 68 330 7.0 16.0 0.00 0.00 0.00 31 1001.6
20260509000708 68 327 6.0 16.0 0.00 0.00 0.00 32 1001.7
20260509000612 68 317 4.0 14.0 0.00 0.00 0.00 31 1001.6
20260509000537 68 338 5.0 14.0 0.00 0.00 0.00 30 1001.6
20260509000420 69 348 8.0 14.0 0.00 0.00 0.00 30 1001.6
20260509000326 69 318 10.0 14.0 0.00 0.00 0.00 31 1001.7
20260509000229 69 323 8.0 14.0 0.00 0.00 0.00 31 1001.6
20260509000111 69 5 5.0 12.0 0.00 0.00 0.00 31 1001.6
20260509000020 69 300 5.0 12.0 0.00 0.00 0.00 32 1001.7
20260508235924 69 312 6.0 12.0 0.00 0.00 0.00 30 1001.6
20260508235828 69 355 6.0 12.0 0.00 0.00 0.00 30 1001.7
20260508235752 69 348 7.0 13.0 0.00 0.00 0.00 31 1001.7
20260508235607 69 346 7.0 13.0 0.00 0.00 0.00 31 1001.7
20260508235511 69 337 6.0 13.0 0.00 0.00 0.00 31 1001.7
20260508235420 69 350 6.0 13.0 0.00 0.00 0.00 30 1001.6
20260508235345 69 348 6.0 13.0 0.00 0.00 0.00 32 1001.6
20260508235229 69 350 5.0 13.0 0.00 0.00 0.00 31 1001.7
20260508235106 69 25 5.0 13.0 0.00 0.00 0.00 31 1001.7
20260508235011 69 5 7.0 13.0 0.00 0.00 0.00 31 1001.6
20260508234916 69 350 9.0 13.0 0.00 0.00 0.00 31 1001.6
20260508234820 69 355 9.0 13.0 0.00 0.00 0.00 30 1001.5
20260508234729 69 15 8.0 12.0 0.00 0.00 0.00 30 1001.5
20260508234606 69 24 7.0 11.0 0.00 0.00 0.00 30 1001.6
20260508234510 69 360 6.0 11.0 0.00 0.00 0.00 31 1001.6
20260508234414 69 5 5.0 11.0 0.00 0.00 0.00 31 1001.6
20260508234319 69 27 4.0 11.0 0.00 0.00 0.00 31 1001.6
20260508234207 69 38 5.0 11.0 0.00 0.00 0.00 33 1001.6
20260508234131 69 5 6.0 11.0 0.00 0.00 0.00 31 1001.6
20260508234035 69 323 7.0 14.0 0.00 0.00 0.00 30 1001.6
20260508233918 69 317 7.0 14.0 0.00 0.00 0.00 30 1001.6
20260508233821 69 355 6.0 14.0 0.00 0.00 0.00 31 1001.6
20260508233706 69 325 5.0 14.0 0.00 0.00 0.00 31 1001.6
20260508233630 69 335 5.0 14.0 0.00 0.00 0.00 31 1001.6
20260508233513 69 309 6.0 14.0 0.00 0.00 0.00 31 1001.6
20260508233421 69 339 7.0 16.0 0.00 0.00 0.00 29 1001.5